| time (UTC) | temp F | wind direction | speed MPH | gust MPH | rain 1hr in | rain 24hr in | rain mn in | humidity % | barometer mb |
| 20260831220404 | 102 | 131 | 3.0 | 10.0 | 0.00 | 0.00 | 0.00 | 28 | 1015.4 |
| 20260831220304 | 102 | 132 | 3.0 | 10.0 | 0.00 | 0.00 | 0.00 | 27 | 1015.6 |
| 20260831220104 | 102 | 140 | 3.0 | 10.0 | 0.00 | 0.00 | 0.00 | 26 | 1015.5 |
| 20260831220004 | 102 | 145 | 3.0 | 10.0 | 0.00 | 0.00 | 0.00 | 27 | 1015.5 |
| 20260831215904 | 102 | 151 | 4.0 | 10.0 | 0.00 | 0.00 | 0.00 | 27 | 1015.6 |
| 20260831215804 | 102 | 159 | 4.0 | 10.0 | 0.00 | 0.00 | 0.00 | 27 | 1015.5 |
| 20260831215704 | 102 | 164 | 4.0 | 10.0 | 0.00 | 0.00 | 0.00 | 27 | 1015.5 |
| 20260831215504 | 102 | 167 | 4.0 | 10.0 | 0.00 | 0.00 | 0.00 | 27 | 1015.6 |
| 20260831215404 | 102 | 168 | 4.0 | 10.0 | 0.00 | 0.00 | 0.00 | 27 | 1015.6 |
| 20260831215306 | 102 | 169 | 4.0 | 10.0 | 0.00 | 0.00 | 0.00 | 27 | 1015.6 |
| 20260831215104 | 102 | 163 | 3.0 | 10.0 | 0.00 | 0.00 | 0.00 | 27 | 1015.6 |
| 20260831215004 | 102 | 160 | 3.0 | 10.0 | 0.00 | 0.00 | 0.00 | 27 | 1015.7 |
| 20260831214904 | 102 | 157 | 3.0 | 10.0 | 0.00 | 0.00 | 0.00 | 26 | 1015.6 |
| 20260831214804 | 102 | 157 | 3.0 | 11.0 | 0.00 | 0.00 | 0.00 | 27 | 1015.7 |
| 20260831214704 | 102 | 165 | 3.0 | 11.0 | 0.00 | 0.00 | 0.00 | 27 | 1015.6 |
| 20260831214604 | 102 | 167 | 4.0 | 11.0 | 0.00 | 0.00 | 0.00 | 27 | 1015.6 |
| 20260831214504 | 102 | 169 | 4.0 | 11.0 | 0.00 | 0.00 | 0.00 | 27 | 1015.6 |
| 20260831214304 | 102 | 161 | 4.0 | 11.0 | 0.00 | 0.00 | 0.00 | 27 | 1015.6 |
| 20260831214204 | 102 | 168 | 4.0 | 11.0 | 0.00 | 0.00 | 0.00 | 27 | 1015.6 |
| 20260831214104 | 102 | 172 | 5.0 | 11.0 | 0.00 | 0.00 | 0.00 | 27 | 1015.6 |
| 20260831214004 | 102 | 174 | 5.0 | 12.0 | 0.00 | 0.00 | 0.00 | 27 | 1015.7 |
| 20260831213904 | 102 | 174 | 5.0 | 12.0 | 0.00 | 0.00 | 0.00 | 27 | 1015.6 |
| 20260831213704 | 102 | 174 | 5.0 | 12.0 | 0.00 | 0.00 | 0.00 | 27 | 1015.7 |
| 20260831213604 | 102 | 171 | 5.0 | 12.0 | 0.00 | 0.00 | 0.00 | 27 | 1015.7 |
| 20260831213505 | 102 | 175 | 5.0 | 12.0 | 0.00 | 0.00 | 0.00 | 27 | 1015.7 |
| 20260831213405 | 102 | 177 | 5.0 | 12.0 | 0.00 | 0.00 | 0.00 | 27 | 1015.7 |
| 20260831213305 | 102 | 181 | 5.0 | 12.0 | 0.00 | 0.00 | 0.00 | 26 | 1015.7 |
| 20260831213205 | 102 | 177 | 5.0 | 12.0 | 0.00 | 0.00 | 0.00 | 26 | 1015.7 |
| 20260831213105 | 102 | 174 | 4.0 | 12.0 | 0.00 | 0.00 | 0.00 | 26 | 1015.7 |
| 20260831213005 | 102 | 174 | 4.0 | 12.0 | 0.00 | 0.00 | 0.00 | 26 | 1015.7 |
| 20260831212705 | 103 | 162 | 4.0 | 11.0 | 0.00 | 0.00 | 0.00 | 27 | 1015.8 |
| 20260831212605 | 103 | 167 | 3.0 | 14.0 | 0.00 | 0.00 | 0.00 | 27 | 1015.6 |
| 20260831212505 | 103 | 160 | 3.0 | 14.0 | 0.00 | 0.00 | 0.00 | 27 | 1015.6 |
| 20260831212306 | 103 | 162 | 4.0 | 14.0 | 0.00 | 0.00 | 0.00 | 27 | 1015.6 |
| 20260831211805 | 102 | 160 | 4.0 | 14.0 | 0.00 | 0.00 | 0.00 | 27 | 1015.8 |
| 20260831211405 | 102 | 147 | 4.0 | 9.0 | 0.00 | 0.00 | 0.00 | 26 | 1015.8 |
| 20260831211305 | 102 | 143 | 4.0 | 9.0 | 0.00 | 0.00 | 0.00 | 26 | 1015.8 |
| 20260831211205 | 102 | 139 | 4.0 | 9.0 | 0.00 | 0.00 | 0.00 | 27 | 1015.9 |
| 20260831211005 | 102 | 134 | 4.0 | 9.0 | 0.00 | 0.00 | 0.00 | 26 | 1015.9 |
| 20260831210905 | 102 | 133 | 4.0 | 9.0 | 0.00 | 0.00 | 0.00 | 26 | 1015.9 |
| 20260831210805 | 102 | 133 | 4.0 | 9.0 | 0.00 | 0.00 | 0.00 | 26 | 1015.9 |
| 20260831210705 | 102 | 134 | 4.0 | 9.0 | 0.00 | 0.00 | 0.00 | 26 | 1015.9 |
| 20260831210605 | 102 | 133 | 4.0 | 9.0 | 0.00 | 0.00 | 0.00 | 25 | 1015.9 |
| 20260831210505 | 102 | 134 | 4.0 | 9.0 | 0.00 | 0.00 | 0.00 | 25 | 1015.9 |
| 20260831210405 | 102 | 144 | 4.0 | 9.0 | 0.00 | 0.00 | 0.00 | 24 | 1015.9 |
| 20260831210304 | 102 | 150 | 4.0 | 9.0 | 0.00 | 0.00 | 0.00 | 25 | 1015.9 |
| 20260831210204 | 102 | 157 | 4.0 | 9.0 | 0.00 | 0.00 | 0.00 | 25 | 1015.9 |
| 20260831210005 | 102 | 154 | 4.0 | 10.0 | 0.00 | 0.00 | 0.00 | 26 | 1015.9 |
| 20260831205905 | 102 | 158 | 5.0 | 10.0 | 0.00 | 0.00 | 0.00 | 26 | 1016.0 |
| 20260831205804 | 102 | 164 | 5.0 | 12.0 | 0.00 | 0.00 | 0.00 | 27 | 1016.0 |
| 20260831205704 | 102 | 168 | 5.0 | 12.0 | 0.00 | 0.00 | 0.00 | 27 | 1016.1 |
| 20260831205605 | 102 | 169 | 5.0 | 13.0 | 0.00 | 0.00 | 0.00 | 27 | 1016.0 |
| 20260831205505 | 102 | 171 | 5.0 | 13.0 | 0.00 | 0.00 | 0.00 | 26 | 1016.0 |
| 20260831205404 | 102 | 168 | 5.0 | 13.0 | 0.00 | 0.00 | 0.00 | 26 | 1016.0 |
| 20260831205306 | 102 | 163 | 5.0 | 13.0 | 0.00 | 0.00 | 0.00 | 27 | 1016.1 |
| 20260831205204 | 102 | 159 | 4.0 | 13.0 | 0.00 | 0.00 | 0.00 | 27 | 1016.1 |
| 20260831205104 | 102 | 160 | 5.0 | 13.0 | 0.00 | 0.00 | 0.00 | 27 | 1016.1 |
| 20260831205004 | 102 | 168 | 5.0 | 13.0 | 0.00 | 0.00 | 0.00 | 27 | 1016.0 |
| 20260831204804 | 102 | 170 | 5.0 | 13.0 | 0.00 | 0.00 | 0.00 | 27 | 1016.0 |
| 20260831204704 | 102 | 173 | 5.0 | 13.0 | 0.00 | 0.00 | 0.00 | 28 | 1016.0 |
| 20260831204604 | 102 | 172 | 5.0 | 13.0 | 0.00 | 0.00 | 0.00 | 28 | 1016.1 |
| 20260831204504 | 102 | 169 | 5.0 | 13.0 | 0.00 | 0.00 | 0.00 | 28 | 1016.1 |
| 20260831204404 | 102 | 165 | 5.0 | 13.0 | 0.00 | 0.00 | 0.00 | 27 | 1016.2 |
| 20260831204304 | 102 | 164 | 5.0 | 13.0 | 0.00 | 0.00 | 0.00 | 28 | 1016.2 |
| 20260831204204 | 102 | 162 | 5.0 | 13.0 | 0.00 | 0.00 | 0.00 | 28 | 1016.1 |
| 20260831204004 | 102 | 150 | 5.0 | 13.0 | 0.00 | 0.00 | 0.00 | 28 | 1016.2 |
| 20260831203804 | 102 | 156 | 4.0 | 13.0 | 0.00 | 0.00 | 0.00 | 28 | 1016.2 |
| 20260831203704 | 102 | 152 | 4.0 | 11.0 | 0.00 | 0.00 | 0.00 | 28 | 1016.1 |
| 20260831203605 | 102 | 152 | 5.0 | 11.0 | 0.00 | 0.00 | 0.00 | 28 | 1016.1 |
| 20260831203505 | 102 | 160 | 5.0 | 11.0 | 0.00 | 0.00 | 0.00 | 28 | 1016.2 |
| 20260831203405 | 102 | 170 | 5.0 | 12.0 | 0.00 | 0.00 | 0.00 | 28 | 1016.1 |
| 20260831203305 | 102 | 177 | 5.0 | 12.0 | 0.00 | 0.00 | 0.00 | 28 | 1016.1 |
| 20260831203205 | 102 | 185 | 5.0 | 12.0 | 0.00 | 0.00 | 0.00 | 29 | 1016.2 |
| 20260831203105 | 102 | 187 | 5.0 | 12.0 | 0.00 | 0.00 | 0.00 | 29 | 1016.0 |
| 20260831203005 | 102 | 189 | 5.0 | 12.0 | 0.00 | 0.00 | 0.00 | 28 | 1016.2 |
| 20260831202905 | 102 | 178 | 5.0 | 12.0 | 0.00 | 0.00 | 0.00 | 29 | 1016.1 |
| 20260831202705 | 102 | 179 | 6.0 | 12.0 | 0.00 | 0.00 | 0.00 | 28 | 1016.3 |
| 20260831202605 | 102 | 182 | 5.0 | 12.0 | 0.00 | 0.00 | 0.00 | 27 | 1016.2 |
| 20260831202505 | 102 | 178 | 5.0 | 12.0 | 0.00 | 0.00 | 0.00 | 27 | 1016.3 |
| 20260831202405 | 102 | 174 | 5.0 | 12.0 | 0.00 | 0.00 | 0.00 | 28 | 1016.3 |
| 20260831202306 | 102 | 169 | 5.0 | 12.0 | 0.00 | 0.00 | 0.00 | 28 | 1016.3 |
| 20260831202205 | 102 | 163 | 4.0 | 12.0 | 0.00 | 0.00 | 0.00 | 28 | 1016.3 |
| 20260831201905 | 102 | 177 | 4.0 | 12.0 | 0.00 | 0.00 | 0.00 | 28 | 1016.4 |
| 20260831201805 | 102 | 176 | 4.0 | 12.0 | 0.00 | 0.00 | 0.00 | 29 | 1016.4 |
| 20260831201705 | 102 | 172 | 4.0 | 12.0 | 0.00 | 0.00 | 0.00 | 30 | 1016.4 |
| 20260831201605 | 102 | 178 | 4.0 | 14.0 | 0.00 | 0.00 | 0.00 | 30 | 1016.3 |
| 20260831201505 | 102 | 181 | 4.0 | 14.0 | 0.00 | 0.00 | 0.00 | 29 | 1016.3 |
| 20260831201405 | 102 | 182 | 5.0 | 14.0 | 0.00 | 0.00 | 0.00 | 29 | 1016.2 |
| 20260831201305 | 102 | 183 | 5.0 | 14.0 | 0.00 | 0.00 | 0.00 | 30 | 1016.3 |
| 20260831201205 | 101 | 186 | 5.0 | 14.0 | 0.00 | 0.00 | 0.00 | 28 | 1016.3 |
| 20260831201005 | 101 | 187 | 5.0 | 14.0 | 0.00 | 0.00 | 0.00 | 29 | 1016.4 |
| 20260831200905 | 101 | 184 | 5.0 | 14.0 | 0.00 | 0.00 | 0.00 | 29 | 1016.4 |
| 20260831200805 | 101 | 187 | 5.0 | 14.0 | 0.00 | 0.00 | 0.00 | 29 | 1016.4 |
| 20260831200705 | 101 | 187 | 5.0 | 14.0 | 0.00 | 0.00 | 0.00 | 29 | 1016.4 |
| 20260831200605 | 102 | 183 | 5.0 | 14.0 | 0.00 | 0.00 | 0.00 | 29 | 1016.5 |
| 20260831200505 | 102 | 178 | 5.0 | 12.0 | 0.00 | 0.00 | 0.00 | 29 | 1016.4 |
| 20260831200405 | 102 | 178 | 5.0 | 12.0 | 0.00 | 0.00 | 0.00 | 29 | 1016.4 |
| 20260831200305 | 102 | 177 | 5.0 | 12.0 | 0.00 | 0.00 | 0.00 | 29 | 1016.4 |
| 20260831200205 | 102 | 178 | 5.0 | 12.0 | 0.00 | 0.00 | 0.00 | 29 | 1016.4 |
| 20260831200104 | 102 | 178 | 5.0 | 12.0 | 0.00 | 0.00 | 0.00 | 30 | 1016.5 |
| 20260831195904 | 102 | 184 | 5.0 | 13.0 | 0.00 | 0.00 | 0.00 | 30 | 1016.5 |
| 20260831195805 | 102 | 183 | 5.0 | 13.0 | 0.00 | 0.00 | 0.00 | 30 | 1016.4 |
| 20260831195705 | 102 | 182 | 5.0 | 13.0 | 0.00 | 0.00 | 0.00 | 30 | 1016.5 |
| 20260831195605 | 102 | 183 | 5.0 | 13.0 | 0.00 | 0.00 | 0.00 | 30 | 1016.5 |
| 20260831195404 | 102 | 186 | 4.0 | 13.0 | 0.00 | 0.00 | 0.00 | 30 | 1016.4 |
| 20260831195306 | 102 | 179 | 4.0 | 13.0 | 0.00 | 0.00 | 0.00 | 30 | 1016.5 |
| 20260831195204 | 102 | 172 | 4.0 | 13.0 | 0.00 | 0.00 | 0.00 | 30 | 1016.5 |
| 20260831195105 | 102 | 164 | 4.0 | 13.0 | 0.00 | 0.00 | 0.00 | 29 | 1016.5 |
| 20260831195004 | 103 | 159 | 3.0 | 13.0 | 0.00 | 0.00 | 0.00 | 29 | 1016.5 |
| 20260831194904 | 103 | 147 | 3.0 | 11.0 | 0.00 | 0.00 | 0.00 | 30 | 1016.6 |
| 20260831194804 | 102 | 138 | 3.0 | 9.0 | 0.00 | 0.00 | 0.00 | 30 | 1016.5 |
| 20260831194704 | 102 | 136 | 3.0 | 8.0 | 0.00 | 0.00 | 0.00 | 30 | 1016.5 |
| 20260831194604 | 102 | 135 | 4.0 | 8.0 | 0.00 | 0.00 | 0.00 | 31 | 1016.5 |
| 20260831194504 | 102 | 144 | 4.0 | 12.0 | 0.00 | 0.00 | 0.00 | 31 | 1016.5 |
| 20260831194304 | 102 | 160 | 5.0 | 16.0 | 0.00 | 0.00 | 0.00 | 30 | 1016.5 |
| 20260831194204 | 102 | 173 | 5.0 | 16.0 | 0.00 | 0.00 | 0.00 | 30 | 1016.5 |
| 20260831194104 | 101 | 184 | 5.0 | 16.0 | 0.00 | 0.00 | 0.00 | 30 | 1016.5 |
| 20260831194004 | 101 | 189 | 6.0 | 16.0 | 0.00 | 0.00 | 0.00 | 31 | 1016.6 |
| 20260831193904 | 101 | 196 | 6.0 | 16.0 | 0.00 | 0.00 | 0.00 | 30 | 1016.5 |
| 20260831193804 | 101 | 200 | 6.0 | 16.0 | 0.00 | 0.00 | 0.00 | 31 | 1016.5 |
| 20260831193704 | 101 | 202 | 7.0 | 16.0 | 0.00 | 0.00 | 0.00 | 31 | 1016.5 |
| 20260831193604 | 101 | 202 | 7.0 | 16.0 | 0.00 | 0.00 | 0.00 | 31 | 1016.5 |
| 20260831193504 | 101 | 201 | 6.0 | 16.0 | 0.00 | 0.00 | 0.00 | 31 | 1016.6 |
| 20260831193304 | 101 | 200 | 6.0 | 13.0 | 0.00 | 0.00 | 0.00 | 31 | 1016.4 |
| 20260831193204 | 101 | 198 | 6.0 | 13.0 | 0.00 | 0.00 | 0.00 | 31 | 1016.5 |
| 20260831193104 | 101 | 193 | 6.0 | 13.0 | 0.00 | 0.00 | 0.00 | 31 | 1016.6 |
| 20260831193004 | 101 | 189 | 6.0 | 13.0 | 0.00 | 0.00 | 0.00 | 31 | 1016.6 |
| 20260831192804 | 101 | 176 | 5.0 | 13.0 | 0.00 | 0.00 | 0.00 | 31 | 1016.7 |
| 20260831192604 | 102 | 174 | 5.0 | 13.0 | 0.00 | 0.00 | 0.00 | 30 | 1016.6 |
| 20260831192504 | 102 | 175 | 4.0 | 13.0 | 0.00 | 0.00 | 0.00 | 30 | 1016.6 |
| 20260831192404 | 102 | 174 | 4.0 | 13.0 | 0.00 | 0.00 | 0.00 | 30 | 1016.6 |
| 20260831192305 | 102 | 175 | 4.0 | 13.0 | 0.00 | 0.00 | 0.00 | 31 | 1016.6 |
| 20260831192204 | 102 | 166 | 4.0 | 12.0 | 0.00 | 0.00 | 0.00 | 31 | 1016.6 |
| 20260831192104 | 102 | 164 | 4.0 | 12.0 | 0.00 | 0.00 | 0.00 | 31 | 1016.7 |
| 20260831192005 | 102 | 166 | 5.0 | 12.0 | 0.00 | 0.00 | 0.00 | 31 | 1016.7 |
| 20260831191905 | 102 | 170 | 5.0 | 13.0 | 0.00 | 0.00 | 0.00 | 32 | 1016.6 |
| 20260831191805 | 101 | 171 | 5.0 | 13.0 | 0.00 | 0.00 | 0.00 | 31 | 1016.6 |
| 20260831191705 | 101 | 172 | 5.0 | 13.0 | 0.00 | 0.00 | 0.00 | 31 | 1016.7 |
| 20260831191605 | 101 | 170 | 5.0 | 13.0 | 0.00 | 0.00 | 0.00 | 31 | 1016.7 |
| 20260831191505 | 101 | 164 | 5.0 | 13.0 | 0.00 | 0.00 | 0.00 | 32 | 1016.7 |
| 20260831191304 | 101 | 166 | 5.0 | 13.0 | 0.00 | 0.00 | 0.00 | 32 | 1016.7 |
| 20260831191204 | 101 | 169 | 5.0 | 13.0 | 0.00 | 0.00 | 0.00 | 33 | 1016.7 |
| 20260831191004 | 101 | 173 | 5.0 | 13.0 | 0.00 | 0.00 | 0.00 | 32 | 1016.7 |
| 20260831190904 | 101 | 174 | 5.0 | 12.0 | 0.00 | 0.00 | 0.00 | 32 | 1016.7 |
| 20260831190804 | 101 | 172 | 5.0 | 12.0 | 0.00 | 0.00 | 0.00 | 32 | 1016.7 |
| 20260831190604 | 101 | 171 | 4.0 | 12.0 | 0.00 | 0.00 | 0.00 | 32 | 1016.7 |
| 20260831190504 | 101 | 173 | 4.0 | 12.0 | 0.00 | 0.00 | 0.00 | 32 | 1016.8 |
| 20260831190205 | 101 | 165 | 4.0 | 12.0 | 0.00 | 0.00 | 0.00 | 31 | 1016.7 |
| 20260831190105 | 101 | 157 | 4.0 | 12.0 | 0.00 | 0.00 | 0.00 | 32 | 1016.7 |
| 20260831190004 | 101 | 153 | 4.0 | 12.0 | 0.00 | 0.00 | 0.00 | 32 | 1016.8 |
| 20260831185904 | 101 | 144 | 4.0 | 8.0 | 0.00 | 0.00 | 0.00 | 33 | 1016.7 |
| 20260831185804 | 101 | 143 | 4.0 | 9.0 | 0.00 | 0.00 | 0.00 | 34 | 1016.7 |
| 20260831185704 | 101 | 139 | 4.0 | 10.0 | 0.00 | 0.00 | 0.00 | 33 | 1016.8 |
| 20260831185604 | 101 | 136 | 5.0 | 10.0 | 0.00 | 0.00 | 0.00 | 33 | 1016.8 |
| 20260831185504 | 101 | 140 | 5.0 | 10.0 | 0.00 | 0.00 | 0.00 | 33 | 1016.8 |
| 20260831185404 | 101 | 137 | 5.0 | 10.0 | 0.00 | 0.00 | 0.00 | 33 | 1016.7 |
| 20260831185306 | 100 | 144 | 5.0 | 11.0 | 0.00 | 0.00 | 0.00 | 33 | 1016.7 |
| 20260831185205 | 100 | 145 | 5.0 | 11.0 | 0.00 | 0.00 | 0.00 | 33 | 1016.8 |
| 20260831185105 | 100 | 148 | 5.0 | 11.0 | 0.00 | 0.00 | 0.00 | 34 | 1016.8 |
| 20260831184805 | 100 | 156 | 5.0 | 11.0 | 0.00 | 0.00 | 0.00 | 33 | 1016.8 |
| 20260831184705 | 100 | 162 | 5.0 | 11.0 | 0.00 | 0.00 | 0.00 | 34 | 1016.8 |
| 20260831184605 | 100 | 168 | 4.0 | 11.0 | 0.00 | 0.00 | 0.00 | 33 | 1016.8 |
| 20260831184505 | 100 | 167 | 4.0 | 11.0 | 0.00 | 0.00 | 0.00 | 34 | 1016.9 |
| 20260831184405 | 100 | 170 | 4.0 | 11.0 | 0.00 | 0.00 | 0.00 | 33 | 1016.9 |
| 20260831184305 | 100 | 170 | 5.0 | 9.0 | 0.00 | 0.00 | 0.00 | 34 | 1016.9 |
| 20260831184205 | 100 | 172 | 5.0 | 9.0 | 0.00 | 0.00 | 0.00 | 33 | 1016.9 |
| 20260831184105 | 100 | 172 | 5.0 | 9.0 | 0.00 | 0.00 | 0.00 | 33 | 1016.9 |
| 20260831184005 | 100 | 179 | 5.0 | 12.0 | 0.00 | 0.00 | 0.00 | 33 | 1017.0 |
| 20260831183904 | 100 | 186 | 5.0 | 14.0 | 0.00 | 0.00 | 0.00 | 33 | 1017.0 |
| 20260831183704 | 100 | 186 | 5.0 | 14.0 | 0.00 | 0.00 | 0.00 | 33 | 1017.0 |
| 20260831183604 | 100 | 188 | 5.0 | 14.0 | 0.00 | 0.00 | 0.00 | 33 | 1017.0 |
| 20260831183504 | 100 | 189 | 5.0 | 14.0 | 0.00 | 0.00 | 0.00 | 34 | 1017.0 |
| 20260831183405 | 100 | 187 | 5.0 | 14.0 | 0.00 | 0.00 | 0.00 | 33 | 1017.0 |
| 20260831183304 | 100 | 191 | 5.0 | 14.0 | 0.00 | 0.00 | 0.00 | 33 | 1017.1 |
| 20260831183205 | 100 | 194 | 5.0 | 14.0 | 0.00 | 0.00 | 0.00 | 33 | 1017.0 |
| 20260831183105 | 100 | 195 | 5.0 | 14.0 | 0.00 | 0.00 | 0.00 | 33 | 1017.0 |
| 20260831183005 | 100 | 192 | 4.0 | 14.0 | 0.00 | 0.00 | 0.00 | 35 | 1017.0 |
| 20260831182805 | 100 | 185 | 5.0 | 14.0 | 0.00 | 0.00 | 0.00 | 35 | 1017.0 |
| 20260831182605 | 100 | 175 | 5.0 | 14.0 | 0.00 | 0.00 | 0.00 | 34 | 1017.0 |
| 20260831182505 | 100 | 172 | 4.0 | 14.0 | 0.00 | 0.00 | 0.00 | 35 | 1017.0 |
| 20260831182405 | 100 | 170 | 4.0 | 14.0 | 0.00 | 0.00 | 0.00 | 34 | 1017.0 |
| 20260831182205 | 100 | 157 | 4.0 | 10.0 | 0.00 | 0.00 | 0.00 | 35 | 1017.1 |
| 20260831182105 | 100 | 161 | 4.0 | 10.0 | 0.00 | 0.00 | 0.00 | 34 | 1017.0 |
| 20260831181905 | 100 | 160 | 4.0 | 10.0 | 0.00 | 0.00 | 0.00 | 34 | 1017.1 |
| 20260831181804 | 100 | 166 | 4.0 | 10.0 | 0.00 | 0.00 | 0.00 | 35 | 1017.1 |
| 20260831181705 | 100 | 168 | 4.0 | 10.0 | 0.00 | 0.00 | 0.00 | 35 | 1017.2 |
| 20260831181504 | 99 | 183 | 4.0 | 11.0 | 0.00 | 0.00 | 0.00 | 35 | 1017.2 |
| 20260831181404 | 99 | 184 | 5.0 | 11.0 | 0.00 | 0.00 | 0.00 | 36 | 1017.2 |
| 20260831181005 | 99 | 183 | 6.0 | 16.0 | 0.00 | 0.00 | 0.00 | 37 | 1017.2 |
| 20260831180904 | 98 | 181 | 6.0 | 16.0 | 0.00 | 0.00 | 0.00 | 36 | 1017.2 |
| 20260831180804 | 98 | 178 | 6.0 | 16.0 | 0.00 | 0.00 | 0.00 | 36 | 1017.2 |
| 20260831180705 | 98 | 173 | 6.0 | 16.0 | 0.00 | 0.00 | 0.00 | 35 | 1017.2 |
| 20260831180605 | 98 | 165 | 6.0 | 16.0 | 0.00 | 0.00 | 0.00 | 36 | 1017.3 |
| 20260831180404 | 98 | 159 | 5.0 | 16.0 | 0.00 | 0.00 | 0.00 | 36 | 1017.3 |
| 20260831180304 | 98 | 159 | 5.0 | 16.0 | 0.00 | 0.00 | 0.00 | 35 | 1017.3 |
| 20260831180104 | 99 | 157 | 5.0 | 14.0 | 0.00 | 0.00 | 0.00 | 35 | 1017.3 |
| 20260831180005 | 98 | 157 | 5.0 | 12.0 | 0.00 | 0.00 | 0.00 | 36 | 1017.3 |
| 20260831175905 | 98 | 162 | 5.0 | 12.0 | 0.00 | 0.00 | 0.00 | 36 | 1017.3 |
| 20260831175805 | 98 | 169 | 5.0 | 12.0 | 0.00 | 0.00 | 0.00 | 35 | 1017.3 |
| 20260831175705 | 98 | 173 | 5.0 | 12.0 | 0.00 | 0.00 | 0.00 | 37 | 1017.3 |
| 20260831175605 | 98 | 173 | 5.0 | 12.0 | 0.00 | 0.00 | 0.00 | 37 | 1017.3 |
| 20260831175504 | 98 | 172 | 6.0 | 12.0 | 0.00 | 0.00 | 0.00 | 37 | 1017.2 |
| 20260831175404 | 98 | 176 | 6.0 | 12.0 | 0.00 | 0.00 | 0.00 | 37 | 1017.3 |
| 20260831175306 | 97 | 177 | 6.0 | 12.0 | 0.00 | 0.00 | 0.00 | 37 | 1017.3 |
| 20260831175205 | 98 | 182 | 6.0 | 12.0 | 0.00 | 0.00 | 0.00 | 37 | 1017.3 |
| 20260831175104 | 98 | 178 | 5.0 | 12.0 | 0.00 | 0.00 | 0.00 | 37 | 1017.4 |
| 20260831175004 | 98 | 181 | 5.0 | 12.0 | 0.00 | 0.00 | 0.00 | 37 | 1017.4 |
| 20260831174904 | 98 | 179 | 5.0 | 12.0 | 0.00 | 0.00 | 0.00 | 37 | 1017.4 |
| 20260831174804 | 98 | 175 | 5.0 | 11.0 | 0.00 | 0.00 | 0.00 | 37 | 1017.5 |
| 20260831174704 | 97 | 181 | 5.0 | 15.0 | 0.00 | 0.00 | 0.00 | 36 | 1017.5 |
| 20260831174604 | 97 | 185 | 5.0 | 15.0 | 0.00 | 0.00 | 0.00 | 37 | 1017.5 |
| 20260831174504 | 97 | 187 | 5.0 | 15.0 | 0.00 | 0.00 | 0.00 | 37 | 1017.5 |
| 20260831174404 | 98 | 185 | 5.0 | 15.0 | 0.00 | 0.00 | 0.00 | 38 | 1017.5 |
| 20260831174204 | 97 | 183 | 5.0 | 15.0 | 0.00 | 0.00 | 0.00 | 37 | 1017.5 |
| 20260831174105 | 97 | 185 | 6.0 | 15.0 | 0.00 | 0.00 | 0.00 | 37 | 1017.5 |
| 20260831174004 | 97 | 186 | 6.0 | 15.0 | 0.00 | 0.00 | 0.00 | 38 | 1017.5 |
| 20260831173904 | 97 | 186 | 5.0 | 15.0 | 0.00 | 0.00 | 0.00 | 38 | 1017.5 |
| 20260831173804 | 97 | 186 | 5.0 | 15.0 | 0.00 | 0.00 | 0.00 | 38 | 1017.5 |
| 20260831173704 | 97 | 182 | 5.0 | 13.0 | 0.00 | 0.00 | 0.00 | 38 | 1017.5 |
| 20260831173604 | 97 | 181 | 5.0 | 13.0 | 0.00 | 0.00 | 0.00 | 37 | 1017.5 |
| 20260831173504 | 97 | 177 | 5.0 | 13.0 | 0.00 | 0.00 | 0.00 | 38 | 1017.5 |
| 20260831173404 | 97 | 178 | 5.0 | 14.0 | 0.00 | 0.00 | 0.00 | 38 | 1017.5 |
| 20260831173304 | 97 | 179 | 5.0 | 14.0 | 0.00 | 0.00 | 0.00 | 38 | 1017.5 |
| 20260831173204 | 97 | 175 | 5.0 | 14.0 | 0.00 | 0.00 | 0.00 | 38 | 1017.5 |
| 20260831173104 | 97 | 178 | 5.0 | 14.0 | 0.00 | 0.00 | 0.00 | 37 | 1017.6 |
| 20260831173004 | 97 | 179 | 5.0 | 14.0 | 0.00 | 0.00 | 0.00 | 38 | 1017.5 |
| 20260831172804 | 96 | 182 | 6.0 | 14.0 | 0.00 | 0.00 | 0.00 | 38 | 1017.6 |
| 20260831172704 | 96 | 185 | 6.0 | 17.0 | 0.00 | 0.00 | 0.00 | 38 | 1017.6 |
| 20260831172504 | 96 | 185 | 6.0 | 17.0 | 0.00 | 0.00 | 0.00 | 38 | 1017.6 |
| 20260831172306 | 96 | 182 | 6.0 | 17.0 | 0.00 | 0.00 | 0.00 | 39 | 1017.6 |
| 20260831172004 | 96 | 169 | 5.0 | 17.0 | 0.00 | 0.00 | 0.00 | 37 | 1017.6 |
| 20260831171904 | 96 | 171 | 5.0 | 17.0 | 0.00 | 0.00 | 0.00 | 38 | 1017.7 |
| 20260831171804 | 96 | 169 | 5.0 | 17.0 | 0.00 | 0.00 | 0.00 | 38 | 1017.7 |
| 20260831171705 | 96 | 167 | 5.0 | 12.0 | 0.00 | 0.00 | 0.00 | 38 | 1017.6 |
| 20260831171505 | 96 | 175 | 5.0 | 13.0 | 0.00 | 0.00 | 0.00 | 39 | 1017.7 |
| 20260831171405 | 96 | 174 | 6.0 | 13.0 | 0.00 | 0.00 | 0.00 | 39 | 1017.7 |
| 20260831171305 | 96 | 181 | 6.0 | 13.0 | 0.00 | 0.00 | 0.00 | 39 | 1017.7 |
| 20260831171205 | 95 | 186 | 6.0 | 14.0 | 0.00 | 0.00 | 0.00 | 40 | 1017.7 |
| 20260831171105 | 95 | 186 | 6.0 | 14.0 | 0.00 | 0.00 | 0.00 | 40 | 1017.7 |
| 20260831171005 | 95 | 185 | 6.0 | 14.0 | 0.00 | 0.00 | 0.00 | 40 | 1017.8 |
| 20260831170905 | 95 | 178 | 6.0 | 14.0 | 0.00 | 0.00 | 0.00 | 39 | 1017.8 |
| 20260831170805 | 95 | 176 | 6.0 | 14.0 | 0.00 | 0.00 | 0.00 | 39 | 1017.8 |
| 20260831170705 | 95 | 176 | 5.0 | 14.0 | 0.00 | 0.00 | 0.00 | 39 | 1017.8 |
| 20260831170605 | 95 | 172 | 5.0 | 14.0 | 0.00 | 0.00 | 0.00 | 39 | 1017.8 |
| 20260831170505 | 95 | 167 | 5.0 | 14.0 | 0.00 | 0.00 | 0.00 | 39 | 1017.8 |
| 20260831170405 | 96 | 166 | 4.0 | 14.0 | 0.00 | 0.00 | 0.00 | 39 | 1017.8 |
| 20260831170304 | 96 | 162 | 4.0 | 14.0 | 0.00 | 0.00 | 0.00 | 40 | 1017.9 |
| 20260831170204 | 96 | 158 | 5.0 | 12.0 | 0.00 | 0.00 | 0.00 | 39 | 1017.8 |
| 20260831165905 | 95 | 177 | 5.0 | 12.0 | 0.00 | 0.00 | 0.00 | 40 | 1017.8 |
| 20260831165705 | 95 | 179 | 5.0 | 12.0 | 0.00 | 0.00 | 0.00 | 40 | 1017.8 |
| 20260831165604 | 95 | 181 | 6.0 | 12.0 | 0.00 | 0.00 | 0.00 | 40 | 1017.8 |
| 20260831165504 | 95 | 186 | 6.0 | 13.0 | 0.00 | 0.00 | 0.00 | 40 | 1017.8 |
| 20260831165404 | 95 | 188 | 6.0 | 13.0 | 0.00 | 0.00 | 0.00 | 40 | 1017.8 |
| 20260831165305 | 94 | 190 | 5.0 | 13.0 | 0.00 | 0.00 | 0.00 | 40 | 1017.8 |
| 20260831165204 | 94 | 189 | 5.0 | 13.0 | 0.00 | 0.00 | 0.00 | 40 | 1017.9 |
| 20260831165104 | 94 | 189 | 5.0 | 13.0 | 0.00 | 0.00 | 0.00 | 41 | 1017.9 |
| 20260831165004 | 94 | 188 | 5.0 | 13.0 | 0.00 | 0.00 | 0.00 | 40 | 1017.8 |
| 20260831164904 | 94 | 188 | 5.0 | 13.0 | 0.00 | 0.00 | 0.00 | 40 | 1017.9 |
| 20260831164804 | 94 | 187 | 5.0 | 13.0 | 0.00 | 0.00 | 0.00 | 40 | 1017.9 |
| 20260831164604 | 94 | 187 | 4.0 | 13.0 | 0.00 | 0.00 | 0.00 | 40 | 1017.8 |
| 20260831164504 | 94 | 182 | 4.0 | 11.0 | 0.00 | 0.00 | 0.00 | 41 | 1017.9 |
| 20260831164404 | 94 | 176 | 4.0 | 11.0 | 0.00 | 0.00 | 0.00 | 40 | 1017.9 |
| 20260831164304 | 94 | 170 | 4.0 | 11.0 | 0.00 | 0.00 | 0.00 | 40 | 1017.9 |
| 20260831164204 | 94 | 170 | 4.0 | 11.0 | 0.00 | 0.00 | 0.00 | 40 | 1018.0 |
| 20260831164104 | 95 | 171 | 4.0 | 11.0 | 0.00 | 0.00 | 0.00 | 40 | 1017.9 |
| 20260831164004 | 95 | 171 | 4.0 | 11.0 | 0.00 | 0.00 | 0.00 | 41 | 1017.9 |
| 20260831163804 | 94 | 166 | 4.0 | 9.0 | 0.00 | 0.00 | 0.00 | 41 | 1017.9 |
| 20260831163704 | 94 | 169 | 4.0 | 9.0 | 0.00 | 0.00 | 0.00 | 41 | 1018.0 |
| 20260831163604 | 94 | 169 | 4.0 | 9.0 | 0.00 | 0.00 | 0.00 | 41 | 1017.9 |
| 20260831163505 | 94 | 173 | 4.0 | 9.0 | 0.00 | 0.00 | 0.00 | 41 | 1017.9 |
| 20260831163405 | 94 | 177 | 4.0 | 9.0 | 0.00 | 0.00 | 0.00 | 42 | 1018.0 |
| 20260831163205 | 94 | 179 | 4.0 | 9.0 | 0.00 | 0.00 | 0.00 | 41 | 1018.0 |
| 20260831163105 | 94 | 175 | 4.0 | 8.0 | 0.00 | 0.00 | 0.00 | 41 | 1018.0 |
| 20260831163005 | 93 | 175 | 4.0 | 9.0 | 0.00 | 0.00 | 0.00 | 42 | 1018.1 |
| 20260831162805 | 93 | 176 | 4.0 | 10.0 | 0.00 | 0.00 | 0.00 | 42 | 1018.1 |
| 20260831162705 | 93 | 172 | 4.0 | 10.0 | 0.00 | 0.00 | 0.00 | 42 | 1018.1 |
| 20260831162605 | 93 | 169 | 3.0 | 10.0 | 0.00 | 0.00 | 0.00 | 42 | 1018.1 |
| 20260831162405 | 93 | 160 | 3.0 | 10.0 | 0.00 | 0.00 | 0.00 | 42 | 1018.1 |
| 20260831162306 | 93 | 160 | 3.0 | 10.0 | 0.00 | 0.00 | 0.00 | 42 | 1018.1 |
| 20260831162205 | 93 | 160 | 3.0 | 10.0 | 0.00 | 0.00 | 0.00 | 42 | 1018.1 |
| 20260831162005 | 93 | 164 | 4.0 | 10.0 | 0.00 | 0.00 | 0.00 | 42 | 1018.1 |
| 20260831161905 | 93 | 172 | 4.0 | 10.0 | 0.00 | 0.00 | 0.00 | 42 | 1018.1 |
| 20260831161805 | 93 | 178 | 4.0 | 9.0 | 0.00 | 0.00 | 0.00 | 43 | 1018.1 |
| 20260831161705 | 92 | 182 | 5.0 | 13.0 | 0.00 | 0.00 | 0.00 | 44 | 1018.1 |
| 20260831161604 | 92 | 184 | 5.0 | 13.0 | 0.00 | 0.00 | 0.00 | 44 | 1018.1 |
| 20260831161504 | 92 | 183 | 5.0 | 13.0 | 0.00 | 0.00 | 0.00 | 44 | 1018.1 |
| 20260831161405 | 92 | 187 | 5.0 | 13.0 | 0.00 | 0.00 | 0.00 | 44 | 1018.2 |
| 20260831161304 | 92 | 186 | 5.0 | 13.0 | 0.00 | 0.00 | 0.00 | 44 | 1018.2 |
| 20260831161205 | 92 | 184 | 5.0 | 13.0 | 0.00 | 0.00 | 0.00 | 44 | 1018.2 |
| 20260831161104 | 91 | 184 | 5.0 | 13.0 | 0.00 | 0.00 | 0.00 | 44 | 1018.3 |
| 20260831161005 | 92 | 184 | 4.0 | 13.0 | 0.00 | 0.00 | 0.00 | 43 | 1018.3 |
| 20260831160904 | 92 | 183 | 4.0 | 13.0 | 0.00 | 0.00 | 0.00 | 43 | 1018.3 |
| 20260831160804 | 92 | 179 | 4.0 | 13.0 | 0.00 | 0.00 | 0.00 | 43 | 1018.3 |
| 20260831160704 | 92 | 176 | 4.0 | 10.0 | 0.00 | 0.00 | 0.00 | 43 | 1018.2 |
| 20260831160105 | 91 | 197 | 4.0 | 9.0 | 0.00 | 0.00 | 0.00 | 45 | 1018.3 |
| 20260831160004 | 91 | 198 | 4.0 | 9.0 | 0.00 | 0.00 | 0.00 | 44 | 1018.3 |
| 20260831155904 | 91 | 197 | 4.0 | 9.0 | 0.00 | 0.00 | 0.00 | 44 | 1018.2 |
| 20260831155804 | 91 | 198 | 4.0 | 10.0 | 0.00 | 0.00 | 0.00 | 44 | 1018.3 |
| 20260831155704 | 91 | 197 | 4.0 | 10.0 | 0.00 | 0.00 | 0.00 | 44 | 1018.3 |
| 20260831155505 | 91 | 196 | 5.0 | 10.0 | 0.00 | 0.00 | 0.00 | 44 | 1018.2 |
| 20260831155306 | 91 | 191 | 4.0 | 10.0 | 0.00 | 0.00 | 0.00 | 45 | 1018.2 |
| 20260831155205 | 91 | 186 | 5.0 | 10.0 | 0.00 | 0.00 | 0.00 | 45 | 1018.2 |
| 20260831155105 | 90 | 185 | 5.0 | 10.0 | 0.00 | 0.00 | 0.00 | 45 | 1018.2 |
| 20260831155004 | 90 | 183 | 5.0 | 10.0 | 0.00 | 0.00 | 0.00 | 45 | 1018.2 |
| 20260831154804 | 90 | 176 | 5.0 | 10.0 | 0.00 | 0.00 | 0.00 | 45 | 1018.2 |
| 20260831154604 | 90 | 185 | 4.0 | 10.0 | 0.00 | 0.00 | 0.00 | 44 | 1018.2 |
| 20260831154505 | 90 | 186 | 4.0 | 10.0 | 0.00 | 0.00 | 0.00 | 45 | 1018.1 |
| 20260831154405 | 90 | 184 | 4.0 | 10.0 | 0.00 | 0.00 | 0.00 | 46 | 1018.1 |
| 20260831154304 | 90 | 184 | 4.0 | 10.0 | 0.00 | 0.00 | 0.00 | 46 | 1018.2 |
| 20260831154205 | 90 | 183 | 3.0 | 10.0 | 0.00 | 0.00 | 0.00 | 45 | 1018.2 |
| 20260831154005 | 90 | 173 | 3.0 | 10.0 | 0.00 | 0.00 | 0.00 | 46 | 1018.2 |
| 20260831153904 | 90 | 175 | 3.0 | 10.0 | 0.00 | 0.00 | 0.00 | 45 | 1018.1 |
| 20260831153805 | 90 | 174 | 3.0 | 10.0 | 0.00 | 0.00 | 0.00 | 45 | 1018.2 |
| 20260831153704 | 90 | 169 | 3.0 | 8.0 | 0.00 | 0.00 | 0.00 | 45 | 1018.1 |
| 20260831153604 | 90 | 162 | 3.0 | 7.0 | 0.00 | 0.00 | 0.00 | 46 | 1018.2 |
| 20260831153304 | 90 | 159 | 3.0 | 7.0 | 0.00 | 0.00 | 0.00 | 46 | 1018.2 |
| 20260831153205 | 89 | 166 | 3.0 | 7.0 | 0.00 | 0.00 | 0.00 | 46 | 1018.2 |
| 20260831153105 | 89 | 172 | 4.0 | 8.0 | 0.00 | 0.00 | 0.00 | 46 | 1018.3 |
| 20260831153005 | 89 | 173 | 4.0 | 8.0 | 0.00 | 0.00 | 0.00 | 47 | 1018.2 |
| 20260831152805 | 89 | 178 | 4.0 | 9.0 | 0.00 | 0.00 | 0.00 | 46 | 1018.2 |
| 20260831152704 | 89 | 182 | 4.0 | 9.0 | 0.00 | 0.00 | 0.00 | 47 | 1018.2 |
| 20260831152605 | 89 | 184 | 4.0 | 9.0 | 0.00 | 0.00 | 0.00 | 47 | 1018.2 |
| 20260831152504 | 88 | 189 | 5.0 | 9.0 | 0.00 | 0.00 | 0.00 | 47 | 1018.2 |
| 20260831152404 | 88 | 189 | 5.0 | 9.0 | 0.00 | 0.00 | 0.00 | 47 | 1018.2 |
| 20260831152306 | 88 | 191 | 5.0 | 9.0 | 0.00 | 0.00 | 0.00 | 47 | 1018.2 |
| 20260831152205 | 88 | 187 | 4.0 | 9.0 | 0.00 | 0.00 | 0.00 | 47 | 1018.2 |
| 20260831152105 | 88 | 185 | 4.0 | 9.0 | 0.00 | 0.00 | 0.00 | 47 | 1018.2 |
| 20260831152005 | 88 | 186 | 4.0 | 9.0 | 0.00 | 0.00 | 0.00 | 47 | 1018.2 |
| 20260831151904 | 88 | 184 | 4.0 | 9.0 | 0.00 | 0.00 | 0.00 | 47 | 1018.2 |
| 20260831151804 | 88 | 185 | 4.0 | 9.0 | 0.00 | 0.00 | 0.00 | 47 | 1018.2 |
| 20260831151704 | 88 | 182 | 4.0 | 8.0 | 0.00 | 0.00 | 0.00 | 48 | 1018.2 |
| 20260831151604 | 88 | 182 | 3.0 | 8.0 | 0.00 | 0.00 | 0.00 | 47 | 1018.2 |
| 20260831151505 | 88 | 178 | 3.0 | 8.0 | 0.00 | 0.00 | 0.00 | 47 | 1018.2 |
| 20260831151404 | 88 | 177 | 3.0 | 8.0 | 0.00 | 0.00 | 0.00 | 47 | 1018.4 |
| 20260831151304 | 88 | 178 | 3.0 | 8.0 | 0.00 | 0.00 | 0.00 | 48 | 1018.3 |
| 20260831151204 | 88 | 183 | 3.0 | 8.0 | 0.00 | 0.00 | 0.00 | 48 | 1018.3 |
| 20260831151104 | 88 | 187 | 3.0 | 8.0 | 0.00 | 0.00 | 0.00 | 48 | 1018.3 |
| 20260831151004 | 88 | 189 | 3.0 | 8.0 | 0.00 | 0.00 | 0.00 | 47 | 1018.3 |
| 20260831150904 | 88 | 186 | 3.0 | 6.0 | 0.00 | 0.00 | 0.00 | 48 | 1018.4 |
| 20260831150804 | 88 | 186 | 2.0 | 6.0 | 0.00 | 0.00 | 0.00 | 49 | 1018.4 |
| 20260831150704 | 87 | 186 | 2.0 | 6.0 | 0.00 | 0.00 | 0.00 | 48 | 1018.4 |
| 20260831150404 | 87 | 193 | 3.0 | 7.0 | 0.00 | 0.00 | 0.00 | 48 | 1018.4 |
| 20260831150304 | 87 | 187 | 2.0 | 7.0 | 0.00 | 0.00 | 0.00 | 49 | 1018.5 |
| 20260831150204 | 87 | 181 | 2.0 | 7.0 | 0.00 | 0.00 | 0.00 | 49 | 1018.5 |
| 20260831150104 | 87 | 175 | 2.0 | 7.0 | 0.00 | 0.00 | 0.00 | 50 | 1018.5 |
| 20260831150004 | 87 | 173 | 2.0 | 7.0 | 0.00 | 0.00 | 0.00 | 49 | 1018.5 |
| 20260831145804 | 87 | 182 | 3.0 | 7.0 | 0.00 | 0.00 | 0.00 | 49 | 1018.5 |
| 20260831145704 | 87 | 182 | 3.0 | 7.0 | 0.00 | 0.00 | 0.00 | 49 | 1018.5 |
| 20260831145504 | 87 | 173 | 2.0 | 7.0 | 0.00 | 0.00 | 0.00 | 49 | 1018.5 |
| 20260831145306 | 86 | 172 | 2.0 | 7.0 | 0.00 | 0.00 | 0.00 | 49 | 1018.4 |
| 20260831145204 | 86 | 171 | 2.0 | 7.0 | 0.00 | 0.00 | 0.00 | 50 | 1018.5 |
| 20260831145104 | 86 | 174 | 2.0 | 7.0 | 0.00 | 0.00 | 0.00 | 50 | 1018.5 |
| 20260831145004 | 86 | 173 | 2.0 | 7.0 | 0.00 | 0.00 | 0.00 | 49 | 1018.4 |
| 20260831144904 | 86 | 169 | 2.0 | 7.0 | 0.00 | 0.00 | 0.00 | 50 | 1018.5 |
| 20260831144804 | 86 | 159 | 2.0 | 4.0 | 0.00 | 0.00 | 0.00 | 50 | 1018.5 |
| 20260831144705 | 86 | 157 | 1.0 | 4.0 | 0.00 | 0.00 | 0.00 | 49 | 1018.4 |
| 20260831144604 | 86 | 154 | 1.0 | 4.0 | 0.00 | 0.00 | 0.00 | 50 | 1018.4 |
| 20260831144504 | 86 | 151 | 1.0 | 4.0 | 0.00 | 0.00 | 0.00 | 50 | 1018.5 |
| 20260831144404 | 86 | 149 | 1.0 | 4.0 | 0.00 | 0.00 | 0.00 | 50 | 1018.5 |
| 20260831144304 | 86 | 148 | 1.0 | 4.0 | 0.00 | 0.00 | 0.00 | 50 | 1018.5 |
| 20260831144204 | 86 | 145 | 1.0 | 4.0 | 0.00 | 0.00 | 0.00 | 50 | 1018.5 |
| 20260831144104 | 86 | 133 | 1.0 | 4.0 | 0.00 | 0.00 | 0.00 | 50 | 1018.5 |
| 20260831143904 | 86 | 134 | 1.0 | 3.0 | 0.00 | 0.00 | 0.00 | 51 | 1018.4 |
| 20260831143704 | 85 | 145 | 1.0 | 5.0 | 0.00 | 0.00 | 0.00 | 51 | 1018.4 |
| 20260831143604 | 85 | 146 | 2.0 | 5.0 | 0.00 | 0.00 | 0.00 | 51 | 1018.3 |
| 20260831143504 | 85 | 149 | 2.0 | 5.0 | 0.00 | 0.00 | 0.00 | 51 | 1018.4 |
| 20260831143404 | 85 | 154 | 2.0 | 5.0 | 0.00 | 0.00 | 0.00 | 53 | 1018.4 |
| 20260831143304 | 84 | 157 | 2.0 | 5.0 | 0.00 | 0.00 | 0.00 | 52 | 1018.4 |
| 20260831143204 | 84 | 161 | 2.0 | 5.0 | 0.00 | 0.00 | 0.00 | 53 | 1018.4 |
| 20260831143004 | 84 | 170 | 2.0 | 5.0 | 0.00 | 0.00 | 0.00 | 53 | 1018.4 |
| 20260831142904 | 84 | 175 | 2.0 | 5.0 | 0.00 | 0.00 | 0.00 | 52 | 1018.4 |
| 20260831142804 | 84 | 178 | 2.0 | 5.0 | 0.00 | 0.00 | 0.00 | 53 | 1018.5 |
| 20260831142705 | 84 | 178 | 2.0 | 4.0 | 0.00 | 0.00 | 0.00 | 53 | 1018.5 |
| 20260831142605 | 84 | 179 | 2.0 | 4.0 | 0.00 | 0.00 | 0.00 | 53 | 1018.4 |
| 20260831142505 | 83 | 181 | 2.0 | 4.0 | 0.00 | 0.00 | 0.00 | 54 | 1018.5 |
| 20260831142405 | 83 | 182 | 1.0 | 4.0 | 0.00 | 0.00 | 0.00 | 53 | 1018.6 |
| 20260831142306 | 83 | 182 | 1.0 | 4.0 | 0.00 | 0.00 | 0.00 | 54 | 1018.6 |
| 20260831142205 | 83 | 184 | 1.0 | 4.0 | 0.00 | 0.00 | 0.00 | 53 | 1018.6 |
| 20260831142105 | 83 | 179 | 1.0 | 4.0 | 0.00 | 0.00 | 0.00 | 53 | 1018.6 |
| 20260831141905 | 84 | 170 | 1.0 | 4.0 | 0.00 | 0.00 | 0.00 | 53 | 1018.6 |
| 20260831141805 | 83 | 166 | 0.0 | 4.0 | 0.00 | 0.00 | 0.00 | 52 | 1018.6 |
| 20260831141705 | 84 | 156 | 0.0 | 3.0 | 0.00 | 0.00 | 0.00 | 53 | 1018.7 |
| 20260831141605 | 83 | 148 | 0.0 | 2.0 | 0.00 | 0.00 | 0.00 | 53 | 1018.7 |
| 20260831141404 | 83 | 147 | 0.0 | 2.0 | 0.00 | 0.00 | 0.00 | 54 | 1018.7 |
| 20260831141304 | 83 | 147 | 0.0 | 2.0 | 0.00 | 0.00 | 0.00 | 54 | 1018.7 |
| 20260831141204 | 83 | 147 | 0.0 | 2.0 | 0.00 | 0.00 | 0.00 | 53 | 1018.7 |
| 20260831141104 | 83 | 146 | 0.0 | 1.0 | 0.00 | 0.00 | 0.00 | 54 | 1018.7 |
| 20260831141004 | 83 | 148 | 0.0 | 1.0 | 0.00 | 0.00 | 0.00 | 54 | 1018.7 |
| 20260831140904 | 83 | 175 | 0.0 | 3.0 | 0.00 | 0.00 | 0.00 | 54 | 1018.7 |
| 20260831140805 | 82 | 177 | 1.0 | 4.0 | 0.00 | 0.00 | 0.00 | 54 | 1018.7 |
| 20260831140705 | 82 | 176 | 1.0 | 4.0 | 0.00 | 0.00 | 0.00 | 55 | 1018.7 |
| 20260831140605 | 82 | 177 | 1.0 | 4.0 | 0.00 | 0.00 | 0.00 | 56 | 1018.7 |
| 20260831140505 | 82 | 176 | 1.0 | 4.0 | 0.00 | 0.00 | 0.00 | 56 | 1018.7 |
| 20260831140405 | 82 | 173 | 1.0 | 4.0 | 0.00 | 0.00 | 0.00 | 56 | 1018.7 |
| 20260831140305 | 81 | 173 | 1.0 | 4.0 | 0.00 | 0.00 | 0.00 | 57 | 1018.7 |
| 20260831140205 | 81 | 175 | 1.0 | 4.0 | 0.00 | 0.00 | 0.00 | 57 | 1018.7 |
| 20260831140105 | 81 | 177 | 2.0 | 4.0 | 0.00 | 0.00 | 0.00 | 56 | 1018.6 |
| 20260831135904 | 81 | 173 | 1.0 | 4.0 | 0.00 | 0.00 | 0.00 | 57 | 1018.7 |
| 20260831135804 | 81 | 172 | 1.0 | 4.0 | 0.00 | 0.00 | 0.00 | 57 | 1018.6 |
| 20260831135705 | 81 | 171 | 1.0 | 4.0 | 0.00 | 0.00 | 0.00 | 57 | 1018.6 |
| 20260831135604 | 80 | 168 | 1.0 | 4.0 | 0.00 | 0.00 | 0.00 | 57 | 1018.6 |
| 20260831135504 | 80 | 168 | 1.0 | 4.0 | 0.00 | 0.00 | 0.00 | 57 | 1018.6 |
| 20260831135405 | 80 | 169 | 1.0 | 4.0 | 0.00 | 0.00 | 0.00 | 57 | 1018.6 |
| 20260831135306 | 80 | 170 | 1.0 | 4.0 | 0.00 | 0.00 | 0.00 | 57 | 1018.7 |
| 20260831135104 | 80 | 171 | 1.0 | 3.0 | 0.00 | 0.00 | 0.00 | 58 | 1018.6 |
| 20260831135005 | 80 | 174 | 1.0 | 3.0 | 0.00 | 0.00 | 0.00 | 58 | 1018.6 |
| 20260831134904 | 80 | 174 | 1.0 | 3.0 | 0.00 | 0.00 | 0.00 | 58 | 1018.6 |
| 20260831134804 | 80 | 175 | 1.0 | 3.0 | 0.00 | 0.00 | 0.00 | 58 | 1018.6 |
| 20260831134704 | 79 | 177 | 1.0 | 3.0 | 0.00 | 0.00 | 0.00 | 59 | 1018.6 |
| 20260831134604 | 79 | 179 | 1.0 | 3.0 | 0.00 | 0.00 | 0.00 | 59 | 1018.6 |
| 20260831134504 | 79 | 176 | 1.0 | 3.0 | 0.00 | 0.00 | 0.00 | 59 | 1018.6 |
| 20260831134404 | 79 | 175 | 1.0 | 3.0 | 0.00 | 0.00 | 0.00 | 60 | 1018.6 |
| 20260831134204 | 79 | 171 | 1.0 | 3.0 | 0.00 | 0.00 | 0.00 | 59 | 1018.6 |
| 20260831134104 | 79 | 165 | 1.0 | 3.0 | 0.00 | 0.00 | 0.00 | 59 | 1018.6 |
| 20260831133904 | 79 | 163 | 1.0 | 4.0 | 0.00 | 0.00 | 0.00 | 60 | 1018.7 |
| 20260831133804 | 79 | 162 | 1.0 | 4.0 | 0.00 | 0.00 | 0.00 | 60 | 1018.6 |
| 20260831133704 | 78 | 160 | 1.0 | 4.0 | 0.00 | 0.00 | 0.00 | 60 | 1018.6 |
| 20260831133604 | 78 | 159 | 1.0 | 4.0 | 0.00 | 0.00 | 0.00 | 60 | 1018.7 |
| 20260831133504 | 78 | 160 | 1.0 | 4.0 | 0.00 | 0.00 | 0.00 | 60 | 1018.6 |
| 20260831133404 | 78 | 161 | 1.0 | 4.0 | 0.00 | 0.00 | 0.00 | 60 | 1018.6 |
| 20260831133304 | 78 | 160 | 1.0 | 4.0 | 0.00 | 0.00 | 0.00 | 60 | 1018.6 |
| 20260831133204 | 78 | 159 | 1.0 | 4.0 | 0.00 | 0.00 | 0.00 | 60 | 1018.6 |
| 20260831133104 | 78 | 159 | 1.0 | 4.0 | 0.00 | 0.00 | 0.00 | 60 | 1018.6 |
| 20260831133004 | 78 | 156 | 1.0 | 3.0 | 0.00 | 0.00 | 0.00 | 60 | 1018.6 |
| 20260831132904 | 78 | 153 | 1.0 | 3.0 | 0.00 | 0.00 | 0.00 | 61 | 1018.6 |
| 20260831132704 | 78 | 150 | 1.0 | 3.0 | 0.00 | 0.00 | 0.00 | 61 | 1018.6 |
| 20260831132504 | 78 | 147 | 1.0 | 3.0 | 0.00 | 0.00 | 0.00 | 61 | 1018.5 |
| 20260831132404 | 78 | 145 | 1.0 | 3.0 | 0.00 | 0.00 | 0.00 | 61 | 1018.5 |
| 20260831132306 | 78 | 145 | 0.0 | 3.0 | 0.00 | 0.00 | 0.00 | 61 | 1018.6 |
| 20260831132204 | 78 | 142 | 0.0 | 3.0 | 0.00 | 0.00 | 0.00 | 60 | 1018.5 |
| 20260831132104 | 78 | 142 | 0.0 | 3.0 | 0.00 | 0.00 | 0.00 | 60 | 1018.5 |
| 20260831132004 | 78 | 142 | 0.0 | 3.0 | 0.00 | 0.00 | 0.00 | 60 | 1018.5 |
| 20260831131904 | 78 | 144 | 0.0 | 3.0 | 0.00 | 0.00 | 0.00 | 61 | 1018.6 |
| 20260831131804 | 78 | 145 | 0.0 | 2.0 | 0.00 | 0.00 | 0.00 | 60 | 1018.5 |
| 20260831131704 | 78 | 144 | 0.0 | 2.0 | 0.00 | 0.00 | 0.00 | 60 | 1018.5 |
| 20260831131604 | 78 | 142 | 0.0 | 2.0 | 0.00 | 0.00 | 0.00 | 60 | 1018.5 |
| 20260831131504 | 78 | 140 | 0.0 | 2.0 | 0.00 | 0.00 | 0.00 | 60 | 1018.5 |
| 20260831131404 | 78 | 140 | 0.0 | 1.0 | 0.00 | 0.00 | 0.00 | 60 | 1018.4 |
| 20260831131305 | 78 | 141 | 0.0 | 1.0 | 0.00 | 0.00 | 0.00 | 60 | 1018.5 |
| 20260831131205 | 78 | 141 | 0.0 | 1.0 | 0.00 | 0.00 | 0.00 | 60 | 1018.4 |
| 20260831131105 | 78 | 141 | 0.0 | 1.0 | 0.00 | 0.00 | 0.00 | 60 | 1018.4 |
| 20260831131005 | 78 | 143 | 0.0 | 1.0 | 0.00 | 0.00 | 0.00 | 60 | 1018.3 |
| 20260831130905 | 78 | 143 | 0.0 | 1.0 | 0.00 | 0.00 | 0.00 | 60 | 1018.3 |
| 20260831130804 | 78 | 149 | 0.0 | 1.0 | 0.00 | 0.00 | 0.00 | 61 | 1018.3 |
| 20260831130705 | 78 | 151 | 0.0 | 1.0 | 0.00 | 0.00 | 0.00 | 61 | 1018.2 |
| 20260831130604 | 78 | 157 | 0.0 | 3.0 | 0.00 | 0.00 | 0.00 | 61 | 1018.3 |
| 20260831130304 | 77 | 153 | 0.0 | 3.0 | 0.00 | 0.00 | 0.00 | 62 | 1018.2 |
| 20260831130204 | 77 | 151 | 0.0 | 3.0 | 0.00 | 0.00 | 0.00 | 62 | 1018.2 |
| 20260831130104 | 77 | 148 | 1.0 | 3.0 | 0.00 | 0.00 | 0.00 | 62 | 1018.2 |
| 20260831130004 | 77 | 147 | 1.0 | 3.0 | 0.00 | 0.00 | 0.00 | 63 | 1018.1 |
| 20260831125904 | 77 | 147 | 1.0 | 3.0 | 0.00 | 0.00 | 0.00 | 63 | 1018.1 |
| 20260831125805 | 77 | 147 | 1.0 | 3.0 | 0.00 | 0.00 | 0.00 | 63 | 1018.1 |
| 20260831125604 | 76 | 146 | 1.0 | 3.0 | 0.00 | 0.00 | 0.00 | 63 | 1018.0 |
| 20260831125505 | 76 | 144 | 1.0 | 3.0 | 0.00 | 0.00 | 0.00 | 63 | 1018.0 |
| 20260831125405 | 76 | 136 | 1.0 | 3.0 | 0.00 | 0.00 | 0.00 | 63 | 1018.0 |
| 20260831125306 | 76 | 134 | 1.0 | 3.0 | 0.00 | 0.00 | 0.00 | 63 | 1018.0 |
| 20260831125205 | 76 | 133 | 1.0 | 3.0 | 0.00 | 0.00 | 0.00 | 64 | 1018.0 |
| 20260831125105 | 76 | 132 | 1.0 | 3.0 | 0.00 | 0.00 | 0.00 | 64 | 1017.9 |
| 20260831125005 | 76 | 132 | 1.0 | 3.0 | 0.00 | 0.00 | 0.00 | 64 | 1018.0 |
| 20260831124905 | 76 | 134 | 1.0 | 3.0 | 0.00 | 0.00 | 0.00 | 64 | 1017.9 |
| 20260831124805 | 76 | 135 | 1.0 | 3.0 | 0.00 | 0.00 | 0.00 | 64 | 1017.9 |
| 20260831124705 | 76 | 139 | 1.0 | 3.0 | 0.00 | 0.00 | 0.00 | 64 | 1018.0 |
| 20260831124605 | 76 | 140 | 1.0 | 3.0 | 0.00 | 0.00 | 0.00 | 64 | 1017.9 |
| 20260831124305 | 75 | 146 | 1.0 | 3.0 | 0.00 | 0.00 | 0.00 | 64 | 1018.0 |
| 20260831124205 | 75 | 148 | 1.0 | 3.0 | 0.00 | 0.00 | 0.00 | 64 | 1018.0 |
| 20260831124105 | 75 | 150 | 1.0 | 3.0 | 0.00 | 0.00 | 0.00 | 64 | 1018.0 |
| 20260831124005 | 75 | 151 | 1.0 | 3.0 | 0.00 | 0.00 | 0.00 | 64 | 1018.0 |
| 20260831123904 | 75 | 150 | 1.0 | 3.0 | 0.00 | 0.00 | 0.00 | 64 | 1017.9 |
| 20260831123804 | 75 | 151 | 1.0 | 3.0 | 0.00 | 0.00 | 0.00 | 64 | 1018.0 |
| 20260831123704 | 75 | 146 | 1.0 | 3.0 | 0.00 | 0.00 | 0.00 | 64 | 1018.0 |
| 20260831123604 | 75 | 144 | 1.0 | 3.0 | 0.00 | 0.00 | 0.00 | 64 | 1018.0 |
| 20260831123404 | 75 | 147 | 1.0 | 3.0 | 0.00 | 0.00 | 0.00 | 64 | 1017.8 |
| 20260831123305 | 75 | 146 | 1.0 | 3.0 | 0.00 | 0.00 | 0.00 | 64 | 1017.8 |
| 20260831123204 | 75 | 146 | 1.0 | 3.0 | 0.00 | 0.00 | 0.00 | 64 | 1017.8 |
| 20260831123004 | 75 | 146 | 1.0 | 3.0 | 0.00 | 0.00 | 0.00 | 65 | 1017.8 |
| 20260831122804 | 75 | 143 | 1.0 | 3.0 | 0.00 | 0.00 | 0.00 | 64 | 1017.7 |
| 20260831122704 | 75 | 143 | 1.0 | 3.0 | 0.00 | 0.00 | 0.00 | 65 | 1017.7 |
| 20260831122504 | 75 | 146 | 1.0 | 3.0 | 0.00 | 0.00 | 0.00 | 65 | 1017.7 |
| 20260831122405 | 75 | 145 | 1.0 | 3.0 | 0.00 | 0.00 | 0.00 | 65 | 1017.7 |
| 20260831122205 | 75 | 146 | 1.0 | 3.0 | 0.00 | 0.00 | 0.00 | 65 | 1017.7 |
| 20260831122004 | 75 | 145 | 0.0 | 3.0 | 0.00 | 0.00 | 0.00 | 65 | 1017.7 |
| 20260831121905 | 75 | 145 | 0.0 | 3.0 | 0.00 | 0.00 | 0.00 | 65 | 1017.7 |
| 20260831121804 | 75 | 148 | 0.0 | 3.0 | 0.00 | 0.00 | 0.00 | 65 | 1017.6 |
| 20260831121704 | 75 | 149 | 0.0 | 3.0 | 0.00 | 0.00 | 0.00 | 65 | 1017.6 |
| 20260831121604 | 75 | 148 | 0.0 | 3.0 | 0.00 | 0.00 | 0.00 | 65 | 1017.6 |
| 20260831121505 | 75 | 145 | 0.0 | 2.0 | 0.00 | 0.00 | 0.00 | 65 | 1017.6 |
| 20260831121404 | 75 | 147 | 0.0 | 2.0 | 0.00 | 0.00 | 0.00 | 65 | 1017.7 |
| 20260831121304 | 75 | 146 | 0.0 | 2.0 | 0.00 | 0.00 | 0.00 | 65 | 1017.7 |
| 20260831121204 | 75 | 145 | 0.0 | 2.0 | 0.00 | 0.00 | 0.00 | 65 | 1017.7 |
| 20260831121005 | 75 | 148 | 0.0 | 2.0 | 0.00 | 0.00 | 0.00 | 65 | 1017.7 |
| 20260831120905 | 75 | 150 | 0.0 | 2.0 | 0.00 | 0.00 | 0.00 | 65 | 1017.7 |
| 20260831120705 | 75 | 151 | 0.0 | 2.0 | 0.00 | 0.00 | 0.00 | 65 | 1017.6 |
| 20260831120504 | 75 | 153 | 0.0 | 2.0 | 0.00 | 0.00 | 0.00 | 64 | 1017.6 |
| 20260831120204 | 75 | 156 | 0.0 | 1.0 | 0.00 | 0.00 | 0.00 | 64 | 1017.6 |
| 20260831120104 | 75 | 157 | 0.0 | 1.0 | 0.00 | 0.00 | 0.00 | 64 | 1017.6 |
| 20260831115804 | 75 | 164 | 0.0 | 3.0 | 0.00 | 0.00 | 0.00 | 64 | 1017.7 |
| 20260831115704 | 75 | 163 | 0.0 | 3.0 | 0.00 | 0.00 | 0.00 | 64 | 1017.7 |
| 20260831115604 | 75 | 162 | 0.0 | 3.0 | 0.00 | 0.00 | 0.00 | 64 | 1017.7 |
| 20260831115504 | 75 | 163 | 0.0 | 3.0 | 0.00 | 0.00 | 0.00 | 64 | 1017.7 |
| 20260831115404 | 75 | 162 | 0.0 | 3.0 | 0.00 | 0.00 | 0.00 | 63 | 1017.7 |
| 20260831115306 | 75 | 160 | 0.0 | 3.0 | 0.00 | 0.00 | 0.00 | 64 | 1017.7 |
| 20260831115204 | 75 | 160 | 0.0 | 3.0 | 0.00 | 0.00 | 0.00 | 63 | 1017.7 |
| 20260831115004 | 75 | 150 | 0.0 | 1.0 | 0.00 | 0.00 | 0.00 | 64 | 1017.7 |
| 20260831114904 | 75 | 150 | 0.0 | 1.0 | 0.00 | 0.00 | 0.00 | 63 | 1017.7 |
| 20260831114704 | 76 | 149 | 0.0 | 1.0 | 0.00 | 0.00 | 0.00 | 63 | 1017.7 |
| 20260831114604 | 76 | 148 | 0.0 | 1.0 | 0.00 | 0.00 | 0.00 | 63 | 1017.7 |
| 20260831114504 | 76 | 148 | 0.0 | 1.0 | 0.00 | 0.00 | 0.00 | 63 | 1017.7 |
| 20260831114404 | 76 | 148 | 0.0 | 1.0 | 0.00 | 0.00 | 0.00 | 63 | 1017.7 |
| 20260831114304 | 76 | 146 | 0.0 | 1.0 | 0.00 | 0.00 | 0.00 | 63 | 1017.7 |
| 20260831114204 | 76 | 146 | 0.0 | 1.0 | 0.00 | 0.00 | 0.00 | 63 | 1017.7 |
| 20260831114104 | 76 | 146 | 0.0 | 1.0 | 0.00 | 0.00 | 0.00 | 63 | 1017.7 |
| 20260831113804 | 76 | 147 | 0.0 | 1.0 | 0.00 | 0.00 | 0.00 | 62 | 1017.7 |
| 20260831113704 | 76 | 147 | 0.0 | 1.0 | 0.00 | 0.00 | 0.00 | 62 | 1017.7 |
| 20260831113604 | 76 | 147 | 0.0 | 1.0 | 0.00 | 0.00 | 0.00 | 62 | 1017.7 |
| 20260831113504 | 76 | 147 | 0.0 | 1.0 | 0.00 | 0.00 | 0.00 | 62 | 1017.7 |
| 20260831113304 | 76 | 146 | 0.0 | 1.0 | 0.00 | 0.00 | 0.00 | 62 | 1017.6 |
| 20260831113204 | 76 | 146 | 0.0 | 1.0 | 0.00 | 0.00 | 0.00 | 62 | 1017.7 |
| 20260831113004 | 76 | 146 | 0.0 | 1.0 | 0.00 | 0.00 | 0.00 | 62 | 1017.7 |
| 20260831112704 | 76 | 146 | 0.0 | 1.0 | 0.00 | 0.00 | 0.00 | 61 | 1017.6 |
| 20260831112604 | 76 | 147 | 0.0 | 1.0 | 0.00 | 0.00 | 0.00 | 61 | 1017.6 |
| 20260831112504 | 76 | 147 | 0.0 | 1.0 | 0.00 | 0.00 | 0.00 | 61 | 1017.6 |
| 20260831112404 | 76 | 150 | 0.0 | 1.0 | 0.00 | 0.00 | 0.00 | 61 | 1017.6 |
| 20260831112307 | 76 | 151 | 0.0 | 1.0 | 0.00 | 0.00 | 0.00 | 61 | 1017.6 |
| 20260831112204 | 76 | 153 | 0.0 | 1.0 | 0.00 | 0.00 | 0.00 | 61 | 1017.6 |
| 20260831112104 | 76 | 155 | 0.0 | 1.0 | 0.00 | 0.00 | 0.00 | 61 | 1017.6 |
| 20260831112004 | 76 | 155 | 0.0 | 2.0 | 0.00 | 0.00 | 0.00 | 61 | 1017.6 |
| 20260831111804 | 77 | 155 | 0.0 | 2.0 | 0.00 | 0.00 | 0.00 | 61 | 1017.5 |
| 20260831111704 | 77 | 155 | 0.0 | 2.0 | 0.00 | 0.00 | 0.00 | 61 | 1017.5 |
| 20260831111604 | 77 | 155 | 0.0 | 2.0 | 0.00 | 0.00 | 0.00 | 61 | 1017.6 |
| 20260831111504 | 77 | 155 | 0.0 | 2.0 | 0.00 | 0.00 | 0.00 | 61 | 1017.5 |
| 20260831111404 | 77 | 155 | 0.0 | 2.0 | 0.00 | 0.00 | 0.00 | 61 | 1017.5 |
| 20260831111304 | 77 | 156 | 0.0 | 2.0 | 0.00 | 0.00 | 0.00 | 61 | 1017.5 |
| 20260831111204 | 77 | 156 | 0.0 | 2.0 | 0.00 | 0.00 | 0.00 | 61 | 1017.5 |
| 20260831111104 | 77 | 155 | 0.0 | 2.0 | 0.00 | 0.00 | 0.00 | 61 | 1017.5 |
| 20260831110904 | 77 | 154 | 0.0 | 2.0 | 0.00 | 0.00 | 0.00 | 60 | 1017.5 |
| 20260831110804 | 77 | 154 | 0.0 | 2.0 | 0.00 | 0.00 | 0.00 | 61 | 1017.5 |
| 20260831110704 | 77 | 154 | 0.0 | 2.0 | 0.00 | 0.00 | 0.00 | 60 | 1017.5 |
| 20260831110604 | 77 | 154 | 0.0 | 2.0 | 0.00 | 0.00 | 0.00 | 60 | 1017.5 |
| 20260831110504 | 77 | 153 | 0.0 | 2.0 | 0.00 | 0.00 | 0.00 | 60 | 1017.4 |
| 20260831110404 | 77 | 153 | 0.0 | 2.0 | 0.00 | 0.00 | 0.00 | 60 | 1017.5 |
| 20260831110304 | 77 | 151 | 0.0 | 2.0 | 0.00 | 0.00 | 0.00 | 60 | 1017.5 |
| 20260831110204 | 77 | 150 | 0.0 | 2.0 | 0.00 | 0.00 | 0.00 | 60 | 1017.5 |
| 20260831110104 | 77 | 150 | 0.0 | 2.0 | 0.00 | 0.00 | 0.00 | 60 | 1017.5 |
| 20260831105804 | 77 | 156 | 1.0 | 3.0 | 0.00 | 0.00 | 0.00 | 60 | 1017.5 |
| 20260831105704 | 77 | 157 | 0.0 | 3.0 | 0.00 | 0.00 | 0.00 | 60 | 1017.5 |
| 20260831105604 | 77 | 158 | 1.0 | 3.0 | 0.00 | 0.00 | 0.00 | 60 | 1017.5 |
| 20260831105504 | 77 | 158 | 1.0 | 3.0 | 0.00 | 0.00 | 0.00 | 60 | 1017.5 |
| 20260831105404 | 77 | 159 | 1.0 | 3.0 | 0.00 | 0.00 | 0.00 | 60 | 1017.5 |
| 20260831105306 | 78 | 159 | 0.0 | 3.0 | 0.00 | 0.00 | 0.00 | 59 | 1017.5 |
| 20260831105204 | 78 | 160 | 0.0 | 3.0 | 0.00 | 0.00 | 0.00 | 60 | 1017.5 |
| 20260831105104 | 78 | 159 | 0.0 | 3.0 | 0.00 | 0.00 | 0.00 | 60 | 1017.5 |
| 20260831105004 | 78 | 157 | 0.0 | 3.0 | 0.00 | 0.00 | 0.00 | 60 | 1017.4 |
| 20260831104804 | 78 | 152 | 0.0 | 2.0 | 0.00 | 0.00 | 0.00 | 59 | 1017.5 |
| 20260831104704 | 78 | 152 | 0.0 | 2.0 | 0.00 | 0.00 | 0.00 | 59 | 1017.5 |
| 20260831104604 | 78 | 152 | 0.0 | 2.0 | 0.00 | 0.00 | 0.00 | 59 | 1017.5 |
| 20260831104504 | 78 | 153 | 0.0 | 2.0 | 0.00 | 0.00 | 0.00 | 59 | 1017.4 |
| 20260831104404 | 78 | 154 | 0.0 | 2.0 | 0.00 | 0.00 | 0.00 | 59 | 1017.4 |
| 20260831104304 | 78 | 156 | 1.0 | 2.0 | 0.00 | 0.00 | 0.00 | 59 | 1017.5 |
| 20260831104204 | 78 | 158 | 1.0 | 2.0 | 0.00 | 0.00 | 0.00 | 59 | 1017.4 |
| 20260831104104 | 78 | 158 | 1.0 | 2.0 | 0.00 | 0.00 | 0.00 | 59 | 1017.4 |
| 20260831104004 | 78 | 161 | 1.0 | 2.0 | 0.00 | 0.00 | 0.00 | 59 | 1017.4 |
| 20260831103704 | 78 | 169 | 1.0 | 4.0 | 0.00 | 0.00 | 0.00 | 59 | 1017.3 |
| 20260831103604 | 78 | 169 | 1.0 | 4.0 | 0.00 | 0.00 | 0.00 | 59 | 1017.3 |
| 20260831103504 | 78 | 171 | 1.0 | 4.0 | 0.00 | 0.00 | 0.00 | 59 | 1017.3 |
| 20260831103404 | 78 | 172 | 1.0 | 4.0 | 0.00 | 0.00 | 0.00 | 59 | 1017.3 |
| 20260831103304 | 78 | 173 | 1.0 | 4.0 | 0.00 | 0.00 | 0.00 | 58 | 1017.3 |
| 20260831103204 | 78 | 174 | 1.0 | 4.0 | 0.00 | 0.00 | 0.00 | 59 | 1017.2 |
| 20260831103104 | 78 | 174 | 2.0 | 4.0 | 0.00 | 0.00 | 0.00 | 58 | 1017.2 |
| 20260831102904 | 78 | 175 | 1.0 | 4.0 | 0.00 | 0.00 | 0.00 | 58 | 1017.2 |
| 20260831102704 | 78 | 173 | 1.0 | 4.0 | 0.00 | 0.00 | 0.00 | 58 | 1017.2 |
| 20260831102604 | 78 | 174 | 1.0 | 4.0 | 0.00 | 0.00 | 0.00 | 58 | 1017.2 |
| 20260831102504 | 78 | 176 | 1.0 | 4.0 | 0.00 | 0.00 | 0.00 | 58 | 1017.2 |
| 20260831102404 | 78 | 174 | 1.0 | 4.0 | 0.00 | 0.00 | 0.00 | 58 | 1017.2 |
| 20260831102306 | 78 | 172 | 1.0 | 4.0 | 0.00 | 0.00 | 0.00 | 58 | 1017.3 |
| 20260831102204 | 79 | 170 | 1.0 | 4.0 | 0.00 | 0.00 | 0.00 | 58 | 1017.3 |
| 20260831102104 | 79 | 168 | 1.0 | 4.0 | 0.00 | 0.00 | 0.00 | 58 | 1017.2 |
| 20260831102004 | 79 | 164 | 1.0 | 4.0 | 0.00 | 0.00 | 0.00 | 58 | 1017.2 |
| 20260831101804 | 79 | 169 | 2.0 | 4.0 | 0.00 | 0.00 | 0.00 | 58 | 1017.2 |
| 20260831101704 | 79 | 169 | 2.0 | 4.0 | 0.00 | 0.00 | 0.00 | 58 | 1017.2 |
| 20260831101405 | 79 | 173 | 2.0 | 5.0 | 0.00 | 0.00 | 0.00 | 57 | 1017.1 |
| 20260831101305 | 79 | 173 | 2.0 | 5.0 | 0.00 | 0.00 | 0.00 | 57 | 1017.2 |
| 20260831101204 | 79 | 173 | 2.0 | 5.0 | 0.00 | 0.00 | 0.00 | 57 | 1017.1 |
| 20260831101104 | 79 | 174 | 2.0 | 5.0 | 0.00 | 0.00 | 0.00 | 57 | 1017.1 |
| 20260831100905 | 79 | 177 | 2.0 | 5.0 | 0.00 | 0.00 | 0.00 | 57 | 1017.1 |
| 20260831100804 | 79 | 175 | 2.0 | 5.0 | 0.00 | 0.00 | 0.00 | 57 | 1017.1 |
| 20260831100704 | 79 | 175 | 2.0 | 6.0 | 0.00 | 0.00 | 0.00 | 57 | 1017.1 |
| 20260831100604 | 79 | 174 | 2.0 | 7.0 | 0.00 | 0.00 | 0.00 | 57 | 1017.1 |
| 20260831100504 | 79 | 172 | 2.0 | 7.0 | 0.00 | 0.00 | 0.00 | 57 | 1017.0 |
| 20260831100404 | 79 | 170 | 2.0 | 7.0 | 0.00 | 0.00 | 0.00 | 57 | 1017.0 |
| 20260831100304 | 79 | 169 | 2.0 | 7.0 | 0.00 | 0.00 | 0.00 | 57 | 1017.0 |
| 20260831100204 | 79 | 168 | 2.0 | 7.0 | 0.00 | 0.00 | 0.00 | 57 | 1016.9 |
| 20260831100104 | 79 | 168 | 2.0 | 7.0 | 0.00 | 0.00 | 0.00 | 57 | 1016.9 |
| 20260831095804 | 79 | 160 | 2.0 | 7.0 | 0.00 | 0.00 | 0.00 | 57 | 1016.9 |
| 20260831095704 | 79 | 157 | 2.0 | 7.0 | 0.00 | 0.00 | 0.00 | 57 | 1016.9 |
| 20260831095604 | 79 | 156 | 2.0 | 5.0 | 0.00 | 0.00 | 0.00 | 58 | 1016.9 |
| 20260831095504 | 79 | 156 | 2.0 | 5.0 | 0.00 | 0.00 | 0.00 | 57 | 1016.8 |
| 20260831095404 | 79 | 155 | 2.0 | 5.0 | 0.00 | 0.00 | 0.00 | 57 | 1016.8 |
| 20260831095306 | 79 | 156 | 2.0 | 5.0 | 0.00 | 0.00 | 0.00 | 57 | 1016.8 |
| 20260831095204 | 79 | 161 | 2.0 | 6.0 | 0.00 | 0.00 | 0.00 | 57 | 1016.8 |
| 20260831095104 | 79 | 159 | 2.0 | 6.0 | 0.00 | 0.00 | 0.00 | 57 | 1016.8 |
| 20260831095004 | 79 | 158 | 2.0 | 6.0 | 0.00 | 0.00 | 0.00 | 57 | 1016.8 |
| 20260831094904 | 79 | 158 | 2.0 | 6.0 | 0.00 | 0.00 | 0.00 | 57 | 1016.7 |
| 20260831094804 | 79 | 160 | 1.0 | 6.0 | 0.00 | 0.00 | 0.00 | 57 | 1016.7 |
| 20260831094704 | 79 | 159 | 1.0 | 6.0 | 0.00 | 0.00 | 0.00 | 57 | 1016.7 |
| 20260831094504 | 79 | 159 | 2.0 | 6.0 | 0.00 | 0.00 | 0.00 | 57 | 1016.7 |
| 20260831094304 | 79 | 159 | 1.0 | 6.0 | 0.00 | 0.00 | 0.00 | 57 | 1016.7 |
| 20260831094204 | 79 | 154 | 1.0 | 4.0 | 0.00 | 0.00 | 0.00 | 57 | 1016.7 |
| 20260831094104 | 79 | 154 | 2.0 | 4.0 | 0.00 | 0.00 | 0.00 | 57 | 1016.7 |
| 20260831094004 | 79 | 154 | 2.0 | 4.0 | 0.00 | 0.00 | 0.00 | 57 | 1016.7 |
| 20260831093904 | 79 | 154 | 2.0 | 4.0 | 0.00 | 0.00 | 0.00 | 57 | 1016.7 |
| 20260831093804 | 79 | 155 | 2.0 | 4.0 | 0.00 | 0.00 | 0.00 | 57 | 1016.7 |
| 20260831093704 | 79 | 157 | 2.0 | 4.0 | 0.00 | 0.00 | 0.00 | 57 | 1016.7 |
| 20260831093604 | 79 | 158 | 2.0 | 4.0 | 0.00 | 0.00 | 0.00 | 57 | 1016.7 |
| 20260831093504 | 79 | 157 | 2.0 | 4.0 | 0.00 | 0.00 | 0.00 | 57 | 1016.7 |
| 20260831093404 | 79 | 157 | 2.0 | 4.0 | 0.00 | 0.00 | 0.00 | 57 | 1016.6 |
| 20260831093304 | 80 | 156 | 2.0 | 4.0 | 0.00 | 0.00 | 0.00 | 57 | 1016.6 |
| 20260831093204 | 80 | 161 | 2.0 | 6.0 | 0.00 | 0.00 | 0.00 | 57 | 1016.5 |
| 20260831093004 | 80 | 166 | 2.0 | 6.0 | 0.00 | 0.00 | 0.00 | 57 | 1016.5 |
| 20260831092904 | 80 | 167 | 2.0 | 6.0 | 0.00 | 0.00 | 0.00 | 57 | 1016.6 |
| 20260831092705 | 80 | 168 | 2.0 | 6.0 | 0.00 | 0.00 | 0.00 | 57 | 1016.6 |
| 20260831092605 | 80 | 166 | 2.0 | 6.0 | 0.00 | 0.00 | 0.00 | 57 | 1016.6 |
| 20260831092505 | 80 | 167 | 2.0 | 6.0 | 0.00 | 0.00 | 0.00 | 57 | 1016.6 |
| 20260831092405 | 80 | 170 | 2.0 | 6.0 | 0.00 | 0.00 | 0.00 | 57 | 1016.5 |
| 20260831092306 | 80 | 169 | 2.0 | 6.0 | 0.00 | 0.00 | 0.00 | 57 | 1016.5 |
| 20260831092205 | 80 | 164 | 2.0 | 6.0 | 0.00 | 0.00 | 0.00 | 57 | 1016.6 |
| 20260831092105 | 80 | 163 | 2.0 | 6.0 | 0.00 | 0.00 | 0.00 | 57 | 1016.5 |
| 20260831091905 | 80 | 161 | 2.0 | 6.0 | 0.00 | 0.00 | 0.00 | 57 | 1016.5 |
| 20260831091805 | 80 | 159 | 2.0 | 6.0 | 0.00 | 0.00 | 0.00 | 57 | 1016.5 |
| 20260831091705 | 80 | 159 | 1.0 | 6.0 | 0.00 | 0.00 | 0.00 | 57 | 1016.6 |
| 20260831091604 | 80 | 160 | 1.0 | 6.0 | 0.00 | 0.00 | 0.00 | 57 | 1016.5 |
| 20260831091505 | 80 | 159 | 1.0 | 6.0 | 0.00 | 0.00 | 0.00 | 57 | 1016.5 |
| 20260831091404 | 80 | 156 | 1.0 | 6.0 | 0.00 | 0.00 | 0.00 | 57 | 1016.5 |
| 20260831091304 | 80 | 157 | 1.0 | 6.0 | 0.00 | 0.00 | 0.00 | 57 | 1016.5 |
| 20260831091204 | 80 | 157 | 1.0 | 6.0 | 0.00 | 0.00 | 0.00 | 57 | 1016.5 |
| 20260831091104 | 80 | 157 | 1.0 | 6.0 | 0.00 | 0.00 | 0.00 | 57 | 1016.5 |
| 20260831091004 | 80 | 154 | 1.0 | 6.0 | 0.00 | 0.00 | 0.00 | 57 | 1016.5 |
| 20260831090904 | 80 | 154 | 1.0 | 6.0 | 0.00 | 0.00 | 0.00 | 57 | 1016.4 |
| 20260831090804 | 80 | 156 | 1.0 | 4.0 | 0.00 | 0.00 | 0.00 | 57 | 1016.4 |
| 20260831090604 | 80 | 154 | 1.0 | 4.0 | 0.00 | 0.00 | 0.00 | 57 | 1016.4 |
| 20260831090504 | 80 | 155 | 1.0 | 4.0 | 0.00 | 0.00 | 0.00 | 57 | 1016.4 |
| 20260831090404 | 80 | 154 | 1.0 | 4.0 | 0.00 | 0.00 | 0.00 | 57 | 1016.4 |
| 20260831090304 | 80 | 153 | 1.0 | 4.0 | 0.00 | 0.00 | 0.00 | 57 | 1016.4 |
| 20260831090004 | 80 | 160 | 2.0 | 4.0 | 0.00 | 0.00 | 0.00 | 56 | 1016.5 |
| 20260831085904 | 80 | 161 | 2.0 | 4.0 | 0.00 | 0.00 | 0.00 | 56 | 1016.5 |
| 20260831085804 | 80 | 157 | 2.0 | 4.0 | 0.00 | 0.00 | 0.00 | 56 | 1016.5 |
| 20260831085704 | 80 | 160 | 2.0 | 5.0 | 0.00 | 0.00 | 0.00 | 56 | 1016.4 |
| 20260831085604 | 80 | 159 | 2.0 | 5.0 | 0.00 | 0.00 | 0.00 | 56 | 1016.4 |
| 20260831085404 | 80 | 160 | 2.0 | 5.0 | 0.00 | 0.00 | 0.00 | 56 | 1016.5 |
| 20260831085306 | 80 | 161 | 2.0 | 5.0 | 0.00 | 0.00 | 0.00 | 56 | 1016.4 |
| 20260831085205 | 80 | 159 | 2.0 | 5.0 | 0.00 | 0.00 | 0.00 | 56 | 1016.4 |
| 20260831085105 | 80 | 159 | 2.0 | 5.0 | 0.00 | 0.00 | 0.00 | 56 | 1016.4 |
| 20260831084705 | 80 | 161 | 2.0 | 6.0 | 0.00 | 0.00 | 0.00 | 56 | 1016.4 |
| 20260831084605 | 80 | 164 | 2.0 | 6.0 | 0.00 | 0.00 | 0.00 | 56 | 1016.3 |
| 20260831084505 | 80 | 166 | 2.0 | 6.0 | 0.00 | 0.00 | 0.00 | 56 | 1016.3 |
| 20260831084205 | 80 | 167 | 1.0 | 6.0 | 0.00 | 0.00 | 0.00 | 56 | 1016.3 |
| 20260831084105 | 80 | 167 | 2.0 | 6.0 | 0.00 | 0.00 | 0.00 | 56 | 1016.3 |
| 20260831084005 | 80 | 167 | 1.0 | 6.0 | 0.00 | 0.00 | 0.00 | 56 | 1016.3 |
| 20260831083905 | 80 | 167 | 1.0 | 6.0 | 0.00 | 0.00 | 0.00 | 56 | 1016.3 |
| 20260831083805 | 80 | 163 | 1.0 | 6.0 | 0.00 | 0.00 | 0.00 | 56 | 1016.3 |
| 20260831083704 | 80 | 161 | 1.0 | 6.0 | 0.00 | 0.00 | 0.00 | 56 | 1016.3 |
| 20260831083604 | 80 | 156 | 1.0 | 6.0 | 0.00 | 0.00 | 0.00 | 56 | 1016.3 |
| 20260831083504 | 80 | 153 | 1.0 | 6.0 | 0.00 | 0.00 | 0.00 | 56 | 1016.2 |
| 20260831083404 | 80 | 153 | 1.0 | 6.0 | 0.00 | 0.00 | 0.00 | 56 | 1016.2 |
| 20260831083304 | 80 | 156 | 1.0 | 6.0 | 0.00 | 0.00 | 0.00 | 56 | 1016.3 |
| 20260831083205 | 80 | 156 | 1.0 | 6.0 | 0.00 | 0.00 | 0.00 | 56 | 1016.2 |
| 20260831083105 | 80 | 154 | 1.0 | 6.0 | 0.00 | 0.00 | 0.00 | 56 | 1016.2 |
| 20260831083005 | 80 | 153 | 1.0 | 6.0 | 0.00 | 0.00 | 0.00 | 56 | 1016.2 |
| 20260831082905 | 80 | 154 | 1.0 | 6.0 | 0.00 | 0.00 | 0.00 | 56 | 1016.2 |
| 20260831082705 | 80 | 155 | 2.0 | 6.0 | 0.00 | 0.00 | 0.00 | 56 | 1016.2 |
| 20260831082605 | 81 | 155 | 2.0 | 6.0 | 0.00 | 0.00 | 0.00 | 56 | 1016.2 |
| 20260831082505 | 81 | 154 | 2.0 | 6.0 | 0.00 | 0.00 | 0.00 | 56 | 1016.2 |
| 20260831082405 | 81 | 154 | 2.0 | 6.0 | 0.00 | 0.00 | 0.00 | 55 | 1016.1 |
| 20260831082306 | 81 | 151 | 2.0 | 6.0 | 0.00 | 0.00 | 0.00 | 55 | 1016.1 |
| 20260831082205 | 81 | 152 | 2.0 | 6.0 | 0.00 | 0.00 | 0.00 | 55 | 1016.1 |
| 20260831082104 | 81 | 152 | 2.0 | 6.0 | 0.00 | 0.00 | 0.00 | 55 | 1016.1 |
| 20260831082004 | 81 | 153 | 2.0 | 6.0 | 0.00 | 0.00 | 0.00 | 55 | 1016.1 |
| 20260831081904 | 81 | 154 | 2.0 | 6.0 | 0.00 | 0.00 | 0.00 | 55 | 1016.1 |
| 20260831081804 | 81 | 151 | 2.0 | 4.0 | 0.00 | 0.00 | 0.00 | 55 | 1016.1 |
| 20260831081704 | 81 | 151 | 2.0 | 4.0 | 0.00 | 0.00 | 0.00 | 55 | 1016.1 |
| 20260831081604 | 81 | 151 | 1.0 | 4.0 | 0.00 | 0.00 | 0.00 | 55 | 1016.1 |
| 20260831081504 | 81 | 152 | 1.0 | 4.0 | 0.00 | 0.00 | 0.00 | 55 | 1016.1 |
| 20260831081404 | 81 | 152 | 1.0 | 4.0 | 0.00 | 0.00 | 0.00 | 55 | 1016.1 |
| 20260831081304 | 81 | 151 | 1.0 | 4.0 | 0.00 | 0.00 | 0.00 | 55 | 1016.1 |
| 20260831081104 | 81 | 155 | 2.0 | 6.0 | 0.00 | 0.00 | 0.00 | 55 | 1016.2 |
| 20260831081004 | 81 | 154 | 2.0 | 6.0 | 0.00 | 0.00 | 0.00 | 54 | 1016.1 |
| 20260831080905 | 81 | 153 | 2.0 | 8.0 | 0.00 | 0.00 | 0.00 | 54 | 1016.1 |
| 20260831080805 | 81 | 153 | 2.0 | 8.0 | 0.00 | 0.00 | 0.00 | 54 | 1016.1 |
| 20260831080705 | 81 | 152 | 2.0 | 8.0 | 0.00 | 0.00 | 0.00 | 54 | 1016.0 |
| 20260831080605 | 82 | 152 | 2.0 | 8.0 | 0.00 | 0.00 | 0.00 | 54 | 1016.1 |
| 20260831080505 | 82 | 152 | 2.0 | 8.0 | 0.00 | 0.00 | 0.00 | 54 | 1016.0 |
| 20260831080405 | 82 | 151 | 2.0 | 8.0 | 0.00 | 0.00 | 0.00 | 54 | 1016.1 |
| 20260831080305 | 82 | 152 | 2.0 | 8.0 | 0.00 | 0.00 | 0.00 | 54 | 1016.1 |
| 20260831080205 | 82 | 152 | 2.0 | 8.0 | 0.00 | 0.00 | 0.00 | 54 | 1016.1 |
| 20260831075805 | 82 | 149 | 2.0 | 8.0 | 0.00 | 0.00 | 0.00 | 53 | 1016.1 |
| 20260831075605 | 82 | 147 | 2.0 | 5.0 | 0.00 | 0.00 | 0.00 | 53 | 1016.1 |
| 20260831075505 | 82 | 147 | 2.0 | 5.0 | 0.00 | 0.00 | 0.00 | 53 | 1016.1 |
| 20260831075405 | 82 | 147 | 2.0 | 5.0 | 0.00 | 0.00 | 0.00 | 53 | 1016.1 |
| 20260831075306 | 82 | 147 | 2.0 | 5.0 | 0.00 | 0.00 | 0.00 | 53 | 1016.1 |
| 20260831075205 | 82 | 147 | 2.0 | 5.0 | 0.00 | 0.00 | 0.00 | 53 | 1016.1 |
| 20260831075105 | 82 | 145 | 2.0 | 5.0 | 0.00 | 0.00 | 0.00 | 53 | 1016.1 |
| 20260831075005 | 82 | 149 | 2.0 | 6.0 | 0.00 | 0.00 | 0.00 | 53 | 1016.1 |
| 20260831074904 | 82 | 146 | 2.0 | 6.0 | 0.00 | 0.00 | 0.00 | 53 | 1016.1 |
| 20260831074704 | 82 | 148 | 2.0 | 6.0 | 0.00 | 0.00 | 0.00 | 53 | 1016.0 |
| 20260831074604 | 82 | 148 | 2.0 | 6.0 | 0.00 | 0.00 | 0.00 | 52 | 1016.0 |
| 20260831074505 | 83 | 152 | 2.0 | 7.0 | 0.00 | 0.00 | 0.00 | 52 | 1016.0 |
| 20260831074405 | 83 | 152 | 2.0 | 7.0 | 0.00 | 0.00 | 0.00 | 52 | 1016.0 |
| 20260831074304 | 83 | 155 | 2.0 | 7.0 | 0.00 | 0.00 | 0.00 | 52 | 1016.0 |
| 20260831074104 | 83 | 159 | 2.0 | 8.0 | 0.00 | 0.00 | 0.00 | 52 | 1016.1 |
| 20260831074004 | 83 | 159 | 2.0 | 8.0 | 0.00 | 0.00 | 0.00 | 52 | 1016.0 |
| 20260831073705 | 83 | 161 | 2.0 | 8.0 | 0.00 | 0.00 | 0.00 | 52 | 1016.1 |
| 20260831073504 | 83 | 159 | 2.0 | 8.0 | 0.00 | 0.00 | 0.00 | 52 | 1016.1 |
| 20260831073404 | 83 | 158 | 2.0 | 8.0 | 0.00 | 0.00 | 0.00 | 52 | 1016.1 |
| 20260831073304 | 83 | 159 | 2.0 | 9.0 | 0.00 | 0.00 | 0.00 | 52 | 1016.1 |
| 20260831073104 | 83 | 158 | 2.0 | 9.0 | 0.00 | 0.00 | 0.00 | 52 | 1016.1 |
| 20260831073004 | 83 | 155 | 2.0 | 9.0 | 0.00 | 0.00 | 0.00 | 51 | 1016.1 |
| 20260831072904 | 83 | 154 | 2.0 | 9.0 | 0.00 | 0.00 | 0.00 | 51 | 1016.1 |
| 20260831072805 | 83 | 155 | 2.0 | 9.0 | 0.00 | 0.00 | 0.00 | 51 | 1016.1 |
| 20260831072704 | 83 | 155 | 2.0 | 9.0 | 0.00 | 0.00 | 0.00 | 51 | 1016.1 |
| 20260831072604 | 83 | 156 | 3.0 | 9.0 | 0.00 | 0.00 | 0.00 | 51 | 1016.1 |
| 20260831072504 | 83 | 156 | 3.0 | 9.0 | 0.00 | 0.00 | 0.00 | 51 | 1016.1 |
| 20260831072306 | 84 | 156 | 3.0 | 7.0 | 0.00 | 0.00 | 0.00 | 51 | 1016.2 |
| 20260831072204 | 84 | 155 | 3.0 | 7.0 | 0.00 | 0.00 | 0.00 | 51 | 1016.1 |
| 20260831072104 | 84 | 152 | 3.0 | 7.0 | 0.00 | 0.00 | 0.00 | 51 | 1016.1 |
| 20260831072005 | 84 | 152 | 3.0 | 7.0 | 0.00 | 0.00 | 0.00 | 51 | 1016.2 |
| 20260831071905 | 84 | 151 | 3.0 | 7.0 | 0.00 | 0.00 | 0.00 | 51 | 1016.1 |
| 20260831071705 | 84 | 156 | 3.0 | 7.0 | 0.00 | 0.00 | 0.00 | 50 | 1016.1 |
| 20260831071605 | 84 | 156 | 2.0 | 7.0 | 0.00 | 0.00 | 0.00 | 50 | 1016.2 |
| 20260831071505 | 84 | 157 | 3.0 | 7.0 | 0.00 | 0.00 | 0.00 | 51 | 1016.1 |
| 20260831071405 | 84 | 155 | 3.0 | 7.0 | 0.00 | 0.00 | 0.00 | 50 | 1016.2 |
| 20260831071306 | 84 | 154 | 2.0 | 7.0 | 0.00 | 0.00 | 0.00 | 50 | 1016.2 |
| 20260831071205 | 84 | 154 | 3.0 | 7.0 | 0.00 | 0.00 | 0.00 | 50 | 1016.2 |
| 20260831071105 | 84 | 155 | 3.0 | 7.0 | 0.00 | 0.00 | 0.00 | 50 | 1016.2 |
| 20260831071005 | 84 | 156 | 3.0 | 9.0 | 0.00 | 0.00 | 0.00 | 50 | 1016.1 |
| 20260831070905 | 84 | 156 | 3.0 | 9.0 | 0.00 | 0.00 | 0.00 | 50 | 1016.2 |
| 20260831070805 | 84 | 158 | 3.0 | 9.0 | 0.00 | 0.00 | 0.00 | 50 | 1016.2 |
| 20260831070705 | 84 | 151 | 3.0 | 9.0 | 0.00 | 0.00 | 0.00 | 50 | 1016.2 |
| 20260831070505 | 84 | 151 | 3.0 | 9.0 | 0.00 | 0.00 | 0.00 | 50 | 1016.1 |
| 20260831070405 | 84 | 153 | 3.0 | 9.0 | 0.00 | 0.00 | 0.00 | 50 | 1016.2 |
| 20260831070205 | 84 | 154 | 3.0 | 10.0 | 0.00 | 0.00 | 0.00 | 50 | 1016.2 |
| 20260831070105 | 84 | 153 | 3.0 | 10.0 | 0.00 | 0.00 | 0.00 | 49 | 1016.2 |
| 20260831065704 | 84 | 151 | 2.0 | 10.0 | 0.00 | 0.00 | 0.00 | 49 | 1016.2 |
| 20260831065604 | 84 | 147 | 2.0 | 10.0 | 0.00 | 0.00 | 0.00 | 49 | 1016.2 |
| 20260831065504 | 85 | 154 | 3.0 | 11.0 | 0.00 | 0.00 | 0.00 | 49 | 1016.2 |
| 20260831065306 | 85 | 153 | 3.0 | 11.0 | 0.00 | 0.00 | 0.00 | 49 | 1016.2 |
| 20260831065104 | 85 | 161 | 3.0 | 14.0 | 0.00 | 0.00 | 0.00 | 49 | 1016.2 |
| 20260831064904 | 85 | 161 | 3.0 | 14.0 | 0.00 | 0.00 | 0.00 | 49 | 1016.2 |
| 20260831064804 | 85 | 162 | 3.0 | 14.0 | 0.00 | 0.00 | 0.00 | 49 | 1016.2 |
| 20260831064704 | 85 | 163 | 3.0 | 14.0 | 0.00 | 0.00 | 0.00 | 49 | 1016.2 |
| 20260831064604 | 85 | 164 | 3.0 | 14.0 | 0.00 | 0.00 | 0.00 | 48 | 1016.2 |
| 20260831064504 | 85 | 160 | 3.0 | 14.0 | 0.00 | 0.00 | 0.00 | 49 | 1016.2 |
| 20260831064404 | 85 | 161 | 3.0 | 14.0 | 0.00 | 0.00 | 0.00 | 49 | 1016.2 |
| 20260831064304 | 85 | 164 | 3.0 | 14.0 | 0.00 | 0.00 | 0.00 | 49 | 1016.2 |
| 20260831064005 | 85 | 160 | 3.0 | 9.0 | 0.00 | 0.00 | 0.00 | 48 | 1016.3 |
| 20260831063905 | 85 | 159 | 3.0 | 9.0 | 0.00 | 0.00 | 0.00 | 48 | 1016.3 |
| 20260831063805 | 85 | 158 | 3.0 | 9.0 | 0.00 | 0.00 | 0.00 | 48 | 1016.3 |
| 20260831063705 | 85 | 158 | 3.0 | 9.0 | 0.00 | 0.00 | 0.00 | 48 | 1016.3 |
| 20260831063605 | 85 | 158 | 3.0 | 9.0 | 0.00 | 0.00 | 0.00 | 48 | 1016.3 |
| 20260831063505 | 85 | 159 | 3.0 | 9.0 | 0.00 | 0.00 | 0.00 | 48 | 1016.3 |
| 20260831063405 | 86 | 157 | 3.0 | 8.0 | 0.00 | 0.00 | 0.00 | 48 | 1016.4 |
| 20260831063305 | 86 | 156 | 3.0 | 9.0 | 0.00 | 0.00 | 0.00 | 48 | 1016.4 |
| 20260831063205 | 86 | 161 | 3.0 | 9.0 | 0.00 | 0.00 | 0.00 | 48 | 1016.4 |
| 20260831063105 | 86 | 161 | 3.0 | 9.0 | 0.00 | 0.00 | 0.00 | 48 | 1016.4 |
| 20260831063004 | 86 | 158 | 3.0 | 9.0 | 0.00 | 0.00 | 0.00 | 48 | 1016.3 |
| 20260831062904 | 86 | 160 | 3.0 | 9.0 | 0.00 | 0.00 | 0.00 | 47 | 1016.4 |
| 20260831062805 | 86 | 160 | 3.0 | 9.0 | 0.00 | 0.00 | 0.00 | 47 | 1016.4 |
| 20260831062605 | 86 | 162 | 3.0 | 12.0 | 0.00 | 0.00 | 0.00 | 47 | 1016.3 |
| 20260831062505 | 86 | 163 | 3.0 | 12.0 | 0.00 | 0.00 | 0.00 | 47 | 1016.3 |
| 20260831062405 | 86 | 164 | 3.0 | 12.0 | 0.00 | 0.00 | 0.00 | 47 | 1016.3 |
| 20260831062306 | 86 | 165 | 3.0 | 12.0 | 0.00 | 0.00 | 0.00 | 47 | 1016.3 |
| 20260831062204 | 86 | 162 | 3.0 | 12.0 | 0.00 | 0.00 | 0.00 | 47 | 1016.3 |
| 20260831062104 | 86 | 164 | 3.0 | 12.0 | 0.00 | 0.00 | 0.00 | 47 | 1016.3 |
| 20260831062004 | 86 | 162 | 4.0 | 12.0 | 0.00 | 0.00 | 0.00 | 47 | 1016.3 |
| 20260831061904 | 86 | 164 | 4.0 | 12.0 | 0.00 | 0.00 | 0.00 | 47 | 1016.2 |
| 20260831061804 | 86 | 165 | 4.0 | 12.0 | 0.00 | 0.00 | 0.00 | 47 | 1016.3 |
| 20260831061704 | 86 | 167 | 4.0 | 12.0 | 0.00 | 0.00 | 0.00 | 46 | 1016.3 |
| 20260831061604 | 86 | 169 | 3.0 | 12.0 | 0.00 | 0.00 | 0.00 | 47 | 1016.2 |
| 20260831061505 | 86 | 167 | 3.0 | 12.0 | 0.00 | 0.00 | 0.00 | 46 | 1016.2 |
| 20260831061404 | 86 | 166 | 3.0 | 12.0 | 0.00 | 0.00 | 0.00 | 46 | 1016.2 |
| 20260831061304 | 86 | 167 | 4.0 | 15.0 | 0.00 | 0.00 | 0.00 | 46 | 1016.2 |
| 20260831061204 | 86 | 171 | 4.0 | 15.0 | 0.00 | 0.00 | 0.00 | 46 | 1016.1 |
| 20260831061104 | 87 | 171 | 4.0 | 15.0 | 0.00 | 0.00 | 0.00 | 46 | 1016.2 |
| 20260831061004 | 87 | 173 | 4.0 | 15.0 | 0.00 | 0.00 | 0.00 | 46 | 1016.2 |
| 20260831060904 | 87 | 173 | 4.0 | 15.0 | 0.00 | 0.00 | 0.00 | 46 | 1016.1 |
| 20260831060804 | 87 | 175 | 4.0 | 15.0 | 0.00 | 0.00 | 0.00 | 46 | 1016.1 |
| 20260831060504 | 87 | 177 | 4.0 | 15.0 | 0.00 | 0.00 | 0.00 | 46 | 1016.0 |
| 20260831060404 | 87 | 178 | 4.0 | 15.0 | 0.00 | 0.00 | 0.00 | 46 | 1016.0 |
| 20260831060304 | 87 | 176 | 4.0 | 9.0 | 0.00 | 0.00 | 0.00 | 46 | 1016.0 |
| 20260831060204 | 87 | 173 | 4.0 | 9.0 | 0.00 | 0.00 | 0.00 | 46 | 1016.0 |
| 20260831060105 | 87 | 172 | 4.0 | 9.0 | 0.00 | 0.00 | 0.00 | 46 | 1016.0 |
| 20260831055905 | 87 | 172 | 3.0 | 9.0 | 0.00 | 0.00 | 0.00 | 46 | 1015.9 |
| 20260831055805 | 87 | 167 | 3.0 | 9.0 | 0.00 | 0.00 | 0.00 | 46 | 1015.9 |
| 20260831055705 | 87 | 161 | 3.0 | 9.0 | 0.00 | 0.00 | 0.00 | 46 | 1015.9 |
| 20260831055605 | 87 | 159 | 3.0 | 9.0 | 0.00 | 0.00 | 0.00 | 46 | 1015.8 |
| 20260831055306 | 87 | 160 | 3.0 | 9.0 | 0.00 | 0.00 | 0.00 | 46 | 1015.7 |
| 20260831055105 | 87 | 153 | 3.0 | 8.0 | 0.00 | 0.00 | 0.00 | 46 | 1015.7 |
| 20260831055005 | 87 | 150 | 3.0 | 8.0 | 0.00 | 0.00 | 0.00 | 46 | 1015.6 |
| 20260831054905 | 87 | 151 | 3.0 | 8.0 | 0.00 | 0.00 | 0.00 | 46 | 1015.6 |
| 20260831054805 | 87 | 154 | 3.0 | 8.0 | 0.00 | 0.00 | 0.00 | 46 | 1015.5 |
| 20260831054605 | 87 | 155 | 3.0 | 8.0 | 0.00 | 0.00 | 0.00 | 45 | 1015.5 |
| 20260831054505 | 87 | 154 | 3.0 | 8.0 | 0.00 | 0.00 | 0.00 | 45 | 1015.5 |
| 20260831054405 | 87 | 152 | 3.0 | 7.0 | 0.00 | 0.00 | 0.00 | 45 | 1015.5 |
| 20260831054305 | 87 | 154 | 3.0 | 10.0 | 0.00 | 0.00 | 0.00 | 45 | 1015.4 |
| 20260831054205 | 87 | 155 | 3.0 | 10.0 | 0.00 | 0.00 | 0.00 | 45 | 1015.4 |
| 20260831054105 | 87 | 158 | 3.0 | 10.0 | 0.00 | 0.00 | 0.00 | 45 | 1015.4 |
| 20260831054005 | 87 | 158 | 3.0 | 10.0 | 0.00 | 0.00 | 0.00 | 45 | 1015.4 |
| 20260831053904 | 87 | 160 | 3.0 | 10.0 | 0.00 | 0.00 | 0.00 | 45 | 1015.3 |
| 20260831053804 | 87 | 158 | 3.0 | 10.0 | 0.00 | 0.00 | 0.00 | 45 | 1015.3 |
| 20260831053705 | 87 | 160 | 3.0 | 12.0 | 0.00 | 0.00 | 0.00 | 45 | 1015.3 |
| 20260831053604 | 87 | 162 | 3.0 | 12.0 | 0.00 | 0.00 | 0.00 | 45 | 1015.3 |
| 20260831053504 | 87 | 161 | 3.0 | 12.0 | 0.00 | 0.00 | 0.00 | 45 | 1015.2 |
| 20260831053404 | 87 | 160 | 3.0 | 12.0 | 0.00 | 0.00 | 0.00 | 45 | 1015.2 |
| 20260831053304 | 87 | 161 | 3.0 | 12.0 | 0.00 | 0.00 | 0.00 | 45 | 1015.2 |
| 20260831053204 | 87 | 162 | 3.0 | 12.0 | 0.00 | 0.00 | 0.00 | 45 | 1015.2 |
| 20260831053104 | 87 | 158 | 3.0 | 12.0 | 0.00 | 0.00 | 0.00 | 45 | 1015.1 |
| 20260831053004 | 87 | 158 | 3.0 | 12.0 | 0.00 | 0.00 | 0.00 | 45 | 1015.1 |
| 20260831052804 | 87 | 163 | 3.0 | 12.0 | 0.00 | 0.00 | 0.00 | 45 | 1015.0 |
| 20260831052704 | 87 | 157 | 3.0 | 8.0 | 0.00 | 0.00 | 0.00 | 45 | 1015.0 |
| 20260831052604 | 87 | 155 | 3.0 | 8.0 | 0.00 | 0.00 | 0.00 | 45 | 1015.0 |
| 20260831052504 | 87 | 156 | 3.0 | 8.0 | 0.00 | 0.00 | 0.00 | 45 | 1014.9 |
| 20260831052404 | 87 | 156 | 3.0 | 8.0 | 0.00 | 0.00 | 0.00 | 45 | 1014.9 |
| 20260831052307 | 87 | 153 | 3.0 | 8.0 | 0.00 | 0.00 | 0.00 | 45 | 1014.9 |
| 20260831052204 | 87 | 151 | 3.0 | 8.0 | 0.00 | 0.00 | 0.00 | 45 | 1014.9 |
| 20260831052104 | 87 | 150 | 3.0 | 8.0 | 0.00 | 0.00 | 0.00 | 45 | 1014.9 |
| 20260831052004 | 87 | 149 | 3.0 | 8.0 | 0.00 | 0.00 | 0.00 | 45 | 1014.9 |
| 20260831051904 | 87 | 147 | 3.0 | 8.0 | 0.00 | 0.00 | 0.00 | 45 | 1014.9 |
| 20260831051804 | 87 | 140 | 3.0 | 8.0 | 0.00 | 0.00 | 0.00 | 45 | 1014.9 |
| 20260831051704 | 87 | 142 | 3.0 | 8.0 | 0.00 | 0.00 | 0.00 | 45 | 1014.9 |
| 20260831051605 | 87 | 144 | 3.0 | 8.0 | 0.00 | 0.00 | 0.00 | 45 | 1014.9 |
| 20260831051505 | 87 | 144 | 3.0 | 8.0 | 0.00 | 0.00 | 0.00 | 45 | 1014.9 |
| 20260831051405 | 87 | 145 | 3.0 | 7.0 | 0.00 | 0.00 | 0.00 | 45 | 1014.9 |
| 20260831051305 | 87 | 145 | 3.0 | 7.0 | 0.00 | 0.00 | 0.00 | 45 | 1014.9 |
| 20260831051205 | 87 | 148 | 3.0 | 8.0 | 0.00 | 0.00 | 0.00 | 45 | 1014.9 |
| 20260831051005 | 87 | 155 | 3.0 | 9.0 | 0.00 | 0.00 | 0.00 | 45 | 1014.8 |
| 20260831050905 | 87 | 155 | 3.0 | 9.0 | 0.00 | 0.00 | 0.00 | 45 | 1014.8 |
| 20260831050805 | 87 | 155 | 3.0 | 9.0 | 0.00 | 0.00 | 0.00 | 45 | 1014.8 |
| 20260831050705 | 87 | 157 | 3.0 | 9.0 | 0.00 | 0.00 | 0.00 | 45 | 1014.8 |
| 20260831050405 | 87 | 153 | 3.0 | 9.0 | 0.00 | 0.00 | 0.00 | 45 | 1014.7 |
| 20260831050305 | 87 | 152 | 3.0 | 9.0 | 0.00 | 0.00 | 0.00 | 45 | 1014.7 |
| 20260831050205 | 87 | 150 | 3.0 | 9.0 | 0.00 | 0.00 | 0.00 | 45 | 1014.8 |
| 20260831050007 | 87 | 145 | 3.0 | 8.0 | 0.00 | 0.00 | 0.00 | 45 | 1014.7 |
| 20260831045904 | 87 | 145 | 3.0 | 8.0 | 0.00 | 0.00 | 0.00 | 45 | 1014.7 |
| 20260831045804 | 87 | 150 | 3.0 | 11.0 | 0.00 | 0.00 | 0.00 | 45 | 1014.7 |
| 20260831045704 | 87 | 148 | 3.0 | 11.0 | 0.00 | 0.00 | 0.00 | 45 | 1014.7 |
| 20260831045604 | 87 | 147 | 3.0 | 11.0 | 0.00 | 0.00 | 0.00 | 45 | 1014.7 |
| 20260831045504 | 87 | 147 | 3.0 | 11.0 | 0.00 | 0.00 | 0.00 | 45 | 1014.7 |
| 20260831045404 | 87 | 146 | 3.0 | 11.0 | 0.00 | 0.00 | 0.00 | 45 | 1014.7 |
| 20260831045306 | 87 | 148 | 3.0 | 11.0 | 0.00 | 0.00 | 0.00 | 45 | 1014.7 |
| 20260831045204 | 87 | 147 | 3.0 | 11.0 | 0.00 | 0.00 | 0.00 | 45 | 1014.7 |
| 20260831045104 | 87 | 145 | 3.0 | 11.0 | 0.00 | 0.00 | 0.00 | 45 | 1014.7 |
| 20260831045004 | 87 | 144 | 3.0 | 11.0 | 0.00 | 0.00 | 0.00 | 45 | 1014.7 |
| 20260831044604 | 87 | 139 | 3.0 | 7.0 | 0.00 | 0.00 | 0.00 | 45 | 1014.7 |
| 20260831044504 | 87 | 137 | 3.0 | 7.0 | 0.00 | 0.00 | 0.00 | 45 | 1014.7 |
| 20260831044404 | 87 | 138 | 3.0 | 7.0 | 0.00 | 0.00 | 0.00 | 45 | 1014.7 |
| 20260831044204 | 87 | 141 | 3.0 | 7.0 | 0.00 | 0.00 | 0.00 | 45 | 1014.7 |
| 20260831044104 | 87 | 142 | 3.0 | 7.0 | 0.00 | 0.00 | 0.00 | 45 | 1014.7 |
| 20260831044004 | 87 | 143 | 3.0 | 7.0 | 0.00 | 0.00 | 0.00 | 45 | 1014.7 |
| 20260831043904 | 87 | 144 | 3.0 | 7.0 | 0.00 | 0.00 | 0.00 | 45 | 1014.6 |
| 20260831043804 | 88 | 143 | 3.0 | 7.0 | 0.00 | 0.00 | 0.00 | 45 | 1014.6 |
| 20260831043604 | 88 | 140 | 3.0 | 7.0 | 0.00 | 0.00 | 0.00 | 45 | 1014.6 |
| 20260831043504 | 88 | 143 | 3.0 | 7.0 | 0.00 | 0.00 | 0.00 | 45 | 1014.6 |
| 20260831043304 | 88 | 145 | 3.0 | 7.0 | 0.00 | 0.00 | 0.00 | 45 | 1014.6 |
| 20260831043104 | 88 | 143 | 3.0 | 10.0 | 0.00 | 0.00 | 0.00 | 45 | 1014.6 |
| 20260831043004 | 88 | 144 | 3.0 | 10.0 | 0.00 | 0.00 | 0.00 | 45 | 1014.6 |
| 20260831042904 | 88 | 143 | 3.0 | 10.0 | 0.00 | 0.00 | 0.00 | 45 | 1014.5 |
| 20260831042804 | 88 | 145 | 3.0 | 10.0 | 0.00 | 0.00 | 0.00 | 45 | 1014.6 |
| 20260831042704 | 88 | 144 | 3.0 | 10.0 | 0.00 | 0.00 | 0.00 | 45 | 1014.5 |
| 20260831042604 | 88 | 144 | 3.0 | 10.0 | 0.00 | 0.00 | 0.00 | 45 | 1014.6 |
| 20260831042404 | 88 | 146 | 3.0 | 10.0 | 0.00 | 0.00 | 0.00 | 45 | 1014.6 |
| 20260831042204 | 88 | 145 | 3.0 | 9.0 | 0.00 | 0.00 | 0.00 | 45 | 1014.6 |
| 20260831042004 | 88 | 144 | 3.0 | 9.0 | 0.00 | 0.00 | 0.00 | 45 | 1014.6 |
| 20260831041604 | 88 | 145 | 3.0 | 9.0 | 0.00 | 0.00 | 0.00 | 44 | 1014.6 |
| 20260831041404 | 88 | 142 | 3.0 | 8.0 | 0.00 | 0.00 | 0.00 | 45 | 1014.6 |
| 20260831041304 | 88 | 141 | 3.0 | 8.0 | 0.00 | 0.00 | 0.00 | 44 | 1014.5 |
| 20260831041004 | 88 | 144 | 3.0 | 8.0 | 0.00 | 0.00 | 0.00 | 44 | 1014.6 |
| 20260831040904 | 88 | 145 | 3.0 | 7.0 | 0.00 | 0.00 | 0.00 | 44 | 1014.6 |
| 20260831040804 | 88 | 147 | 3.0 | 7.0 | 0.00 | 0.00 | 0.00 | 44 | 1014.6 |
| 20260831040704 | 88 | 147 | 3.0 | 7.0 | 0.00 | 0.00 | 0.00 | 44 | 1014.6 |
| 20260831040504 | 88 | 148 | 3.0 | 7.0 | 0.00 | 0.00 | 0.00 | 44 | 1014.6 |
| 20260831040404 | 88 | 148 | 3.0 | 7.0 | 0.00 | 0.00 | 0.00 | 44 | 1014.6 |
| 20260831040304 | 88 | 149 | 3.0 | 7.0 | 0.00 | 0.00 | 0.00 | 44 | 1014.6 |
| 20260831040204 | 88 | 147 | 2.0 | 7.0 | 0.00 | 0.00 | 0.00 | 44 | 1014.6 |
| 20260831040104 | 88 | 143 | 2.0 | 7.0 | 0.00 | 0.00 | 0.00 | 44 | 1014.6 |
| 20260831040004 | 88 | 143 | 2.0 | 7.0 | 0.00 | 0.00 | 0.00 | 44 | 1014.5 |
| 20260831035804 | 88 | 144 | 2.0 | 7.0 | 0.00 | 0.00 | 0.00 | 44 | 1014.5 |
| 20260831035604 | 88 | 144 | 2.0 | 7.0 | 0.00 | 0.00 | 0.00 | 44 | 1014.5 |
| 20260831035504 | 88 | 141 | 2.0 | 7.0 | 0.00 | 0.00 | 0.00 | 44 | 1014.5 |
| 20260831035404 | 88 | 140 | 2.0 | 7.0 | 0.00 | 0.00 | 0.00 | 44 | 1014.5 |
| 20260831035306 | 88 | 141 | 2.0 | 7.0 | 0.00 | 0.00 | 0.00 | 44 | 1014.5 |
| 20260831035204 | 88 | 141 | 3.0 | 7.0 | 0.00 | 0.00 | 0.00 | 44 | 1014.5 |
| 20260831035104 | 88 | 140 | 3.0 | 7.0 | 0.00 | 0.00 | 0.00 | 44 | 1014.5 |
| 20260831034904 | 88 | 138 | 2.0 | 7.0 | 0.00 | 0.00 | 0.00 | 43 | 1014.4 |
| 20260831034804 | 88 | 135 | 3.0 | 7.0 | 0.00 | 0.00 | 0.00 | 44 | 1014.4 |
| 20260831034704 | 89 | 136 | 3.0 | 7.0 | 0.00 | 0.00 | 0.00 | 43 | 1014.4 |
| 20260831034604 | 89 | 134 | 3.0 | 7.0 | 0.00 | 0.00 | 0.00 | 44 | 1014.4 |
| 20260831034504 | 89 | 134 | 3.0 | 7.0 | 0.00 | 0.00 | 0.00 | 44 | 1014.4 |
| 20260831034404 | 89 | 134 | 3.0 | 7.0 | 0.00 | 0.00 | 0.00 | 43 | 1014.4 |
| 20260831034304 | 89 | 133 | 2.0 | 7.0 | 0.00 | 0.00 | 0.00 | 43 | 1014.4 |
| 20260831034204 | 89 | 134 | 2.0 | 7.0 | 0.00 | 0.00 | 0.00 | 43 | 1014.4 |
| 20260831034004 | 89 | 135 | 3.0 | 6.0 | 0.00 | 0.00 | 0.00 | 43 | 1014.4 |
| 20260831033904 | 89 | 135 | 3.0 | 6.0 | 0.00 | 0.00 | 0.00 | 43 | 1014.4 |
| 20260831033805 | 89 | 136 | 2.0 | 6.0 | 0.00 | 0.00 | 0.00 | 43 | 1014.4 |
| 20260831033704 | 89 | 134 | 3.0 | 6.0 | 0.00 | 0.00 | 0.00 | 43 | 1014.4 |
| 20260831033605 | 89 | 135 | 3.0 | 6.0 | 0.00 | 0.00 | 0.00 | 43 | 1014.4 |
| 20260831033505 | 89 | 135 | 3.0 | 6.0 | 0.00 | 0.00 | 0.00 | 43 | 1014.4 |
| 20260831033305 | 89 | 132 | 3.0 | 9.0 | 0.00 | 0.00 | 0.00 | 43 | 1014.4 |
| 20260831033205 | 89 | 133 | 3.0 | 9.0 | 0.00 | 0.00 | 0.00 | 42 | 1014.4 |
| 20260831033105 | 89 | 135 | 2.0 | 9.0 | 0.00 | 0.00 | 0.00 | 42 | 1014.5 |
| 20260831033004 | 89 | 134 | 2.0 | 9.0 | 0.00 | 0.00 | 0.00 | 42 | 1014.5 |
| 20260831032805 | 89 | 133 | 2.0 | 9.0 | 0.00 | 0.00 | 0.00 | 42 | 1014.5 |
| 20260831032704 | 89 | 132 | 2.0 | 9.0 | 0.00 | 0.00 | 0.00 | 42 | 1014.5 |
| 20260831032605 | 90 | 131 | 2.0 | 9.0 | 0.00 | 0.00 | 0.00 | 42 | 1014.5 |
| 20260831032405 | 90 | 136 | 2.0 | 6.0 | 0.00 | 0.00 | 0.00 | 42 | 1014.5 |
| 20260831032306 | 90 | 136 | 2.0 | 6.0 | 0.00 | 0.00 | 0.00 | 42 | 1014.5 |
| 20260831032204 | 90 | 135 | 2.0 | 6.0 | 0.00 | 0.00 | 0.00 | 42 | 1014.5 |
| 20260831032105 | 90 | 134 | 2.0 | 6.0 | 0.00 | 0.00 | 0.00 | 42 | 1014.5 |
| 20260831032005 | 90 | 136 | 2.0 | 6.0 | 0.00 | 0.00 | 0.00 | 42 | 1014.5 |
| 20260831031805 | 90 | 138 | 2.0 | 6.0 | 0.00 | 0.00 | 0.00 | 42 | 1014.5 |
| 20260831031705 | 90 | 139 | 2.0 | 6.0 | 0.00 | 0.00 | 0.00 | 42 | 1014.5 |
| 20260831031605 | 90 | 140 | 3.0 | 6.0 | 0.00 | 0.00 | 0.00 | 42 | 1014.5 |
| 20260831031505 | 90 | 137 | 3.0 | 6.0 | 0.00 | 0.00 | 0.00 | 42 | 1014.5 |
| 20260831031405 | 90 | 136 | 3.0 | 6.0 | 0.00 | 0.00 | 0.00 | 41 | 1014.5 |
| 20260831031305 | 90 | 140 | 3.0 | 9.0 | 0.00 | 0.00 | 0.00 | 42 | 1014.5 |
| 20260831031205 | 90 | 140 | 3.0 | 9.0 | 0.00 | 0.00 | 0.00 | 41 | 1014.5 |
| 20260831031104 | 90 | 139 | 3.0 | 9.0 | 0.00 | 0.00 | 0.00 | 41 | 1014.5 |
| 20260831031005 | 90 | 139 | 3.0 | 9.0 | 0.00 | 0.00 | 0.00 | 41 | 1014.5 |
| 20260831030904 | 90 | 144 | 3.0 | 9.0 | 0.00 | 0.00 | 0.00 | 41 | 1014.5 |
| 20260831030804 | 90 | 143 | 3.0 | 9.0 | 0.00 | 0.00 | 0.00 | 41 | 1014.4 |
| 20260831030704 | 90 | 142 | 3.0 | 9.0 | 0.00 | 0.00 | 0.00 | 41 | 1014.4 |
| 20260831030604 | 90 | 141 | 3.0 | 9.0 | 0.00 | 0.00 | 0.00 | 41 | 1014.5 |
| 20260831030305 | 90 | 138 | 3.0 | 6.0 | 0.00 | 0.00 | 0.00 | 41 | 1014.4 |
| 20260831030204 | 90 | 141 | 2.0 | 6.0 | 0.00 | 0.00 | 0.00 | 40 | 1014.4 |
| 20260831030105 | 90 | 140 | 3.0 | 6.0 | 0.00 | 0.00 | 0.00 | 41 | 1014.4 |
| 20260831030005 | 90 | 146 | 3.0 | 13.0 | 0.00 | 0.00 | 0.00 | 40 | 1014.4 |
| 20260831025904 | 90 | 141 | 2.0 | 13.0 | 0.00 | 0.00 | 0.00 | 40 | 1014.4 |
| 20260831025804 | 90 | 142 | 2.0 | 13.0 | 0.00 | 0.00 | 0.00 | 40 | 1014.4 |
| 20260831025604 | 91 | 142 | 3.0 | 13.0 | 0.00 | 0.00 | 0.00 | 40 | 1014.4 |
| 20260831025504 | 91 | 147 | 3.0 | 13.0 | 0.00 | 0.00 | 0.00 | 40 | 1014.4 |
| 20260831025404 | 91 | 147 | 3.0 | 13.0 | 0.00 | 0.00 | 0.00 | 40 | 1014.4 |
| 20260831025306 | 91 | 147 | 3.0 | 13.0 | 0.00 | 0.00 | 0.00 | 40 | 1014.3 |
| 20260831025204 | 91 | 143 | 3.0 | 13.0 | 0.00 | 0.00 | 0.00 | 40 | 1014.3 |
| 20260831025104 | 91 | 143 | 3.0 | 13.0 | 0.00 | 0.00 | 0.00 | 40 | 1014.3 |
| 20260831025004 | 91 | 136 | 3.0 | 8.0 | 0.00 | 0.00 | 0.00 | 40 | 1014.4 |
| 20260831024904 | 91 | 136 | 3.0 | 8.0 | 0.00 | 0.00 | 0.00 | 39 | 1014.3 |
| 20260831024804 | 91 | 136 | 2.0 | 8.0 | 0.00 | 0.00 | 0.00 | 39 | 1014.3 |
| 20260831024704 | 91 | 136 | 2.0 | 8.0 | 0.00 | 0.00 | 0.00 | 39 | 1014.4 |
| 20260831024604 | 91 | 138 | 2.0 | 8.0 | 0.00 | 0.00 | 0.00 | 39 | 1014.3 |
| 20260831024504 | 91 | 136 | 2.0 | 7.0 | 0.00 | 0.00 | 0.00 | 39 | 1014.4 |
| 20260831024404 | 91 | 136 | 2.0 | 7.0 | 0.00 | 0.00 | 0.00 | 39 | 1014.3 |
| 20260831024304 | 91 | 137 | 2.0 | 7.0 | 0.00 | 0.00 | 0.00 | 39 | 1014.3 |
| 20260831024204 | 91 | 138 | 2.0 | 7.0 | 0.00 | 0.00 | 0.00 | 39 | 1014.3 |
| 20260831024004 | 91 | 141 | 2.0 | 7.0 | 0.00 | 0.00 | 0.00 | 39 | 1014.3 |
| 20260831023904 | 91 | 142 | 2.0 | 7.0 | 0.00 | 0.00 | 0.00 | 39 | 1014.3 |
| 20260831023804 | 91 | 143 | 2.0 | 7.0 | 0.00 | 0.00 | 0.00 | 39 | 1014.3 |
| 20260831023704 | 91 | 142 | 3.0 | 7.0 | 0.00 | 0.00 | 0.00 | 39 | 1014.2 |
| 20260831023504 | 91 | 139 | 2.0 | 6.0 | 0.00 | 0.00 | 0.00 | 39 | 1014.2 |
| 20260831023404 | 92 | 139 | 2.0 | 6.0 | 0.00 | 0.00 | 0.00 | 39 | 1014.2 |
| 20260831023304 | 92 | 140 | 2.0 | 8.0 | 0.00 | 0.00 | 0.00 | 38 | 1014.2 |
| 20260831023204 | 92 | 140 | 2.0 | 8.0 | 0.00 | 0.00 | 0.00 | 38 | 1014.2 |
| 20260831023104 | 92 | 139 | 2.0 | 8.0 | 0.00 | 0.00 | 0.00 | 38 | 1014.2 |
| 20260831023004 | 92 | 138 | 2.0 | 8.0 | 0.00 | 0.00 | 0.00 | 38 | 1014.1 |
| 20260831022904 | 92 | 140 | 2.0 | 8.0 | 0.00 | 0.00 | 0.00 | 38 | 1014.2 |
| 20260831022804 | 92 | 140 | 2.0 | 8.0 | 0.00 | 0.00 | 0.00 | 38 | 1014.2 |
| 20260831022704 | 92 | 144 | 2.0 | 8.0 | 0.00 | 0.00 | 0.00 | 38 | 1014.2 |
| 20260831022604 | 92 | 143 | 2.0 | 8.0 | 0.00 | 0.00 | 0.00 | 38 | 1014.2 |
| 20260831022404 | 92 | 146 | 2.0 | 8.0 | 0.00 | 0.00 | 0.00 | 38 | 1014.1 |
| 20260831022204 | 92 | 144 | 3.0 | 7.0 | 0.00 | 0.00 | 0.00 | 38 | 1014.1 |
| 20260831022104 | 92 | 144 | 3.0 | 7.0 | 0.00 | 0.00 | 0.00 | 38 | 1014.1 |
| 20260831022004 | 92 | 144 | 2.0 | 7.0 | 0.00 | 0.00 | 0.00 | 38 | 1014.0 |
| 20260831021304 | 92 | 137 | 2.0 | 7.0 | 0.00 | 0.00 | 0.00 | 38 | 1014.0 |
| 20260831021204 | 92 | 136 | 2.0 | 6.0 | 0.00 | 0.00 | 0.00 | 38 | 1013.9 |
| 20260831021104 | 92 | 137 | 2.0 | 6.0 | 0.00 | 0.00 | 0.00 | 38 | 1013.9 |
| 20260831021004 | 92 | 136 | 2.0 | 6.0 | 0.00 | 0.00 | 0.00 | 38 | 1013.9 |
| 20260831020904 | 92 | 142 | 2.0 | 8.0 | 0.00 | 0.00 | 0.00 | 38 | 1013.9 |
| 20260831020804 | 92 | 141 | 2.0 | 8.0 | 0.00 | 0.00 | 0.00 | 38 | 1013.8 |
| 20260831020704 | 92 | 143 | 2.0 | 8.0 | 0.00 | 0.00 | 0.00 | 38 | 1013.8 |
| 20260831020604 | 92 | 145 | 2.0 | 8.0 | 0.00 | 0.00 | 0.00 | 38 | 1013.8 |
| 20260831020504 | 93 | 144 | 2.0 | 8.0 | 0.00 | 0.00 | 0.00 | 38 | 1013.7 |
| 20260831020304 | 93 | 146 | 3.0 | 8.0 | 0.00 | 0.00 | 0.00 | 38 | 1013.7 |
| 20260831020204 | 93 | 145 | 2.0 | 8.0 | 0.00 | 0.00 | 0.00 | 38 | 1013.7 |
| 20260831020104 | 93 | 144 | 3.0 | 8.0 | 0.00 | 0.00 | 0.00 | 38 | 1013.7 |
| 20260831020004 | 93 | 146 | 2.0 | 8.0 | 0.00 | 0.00 | 0.00 | 38 | 1013.7 |
| 20260831015704 | 93 | 140 | 2.0 | 8.0 | 0.00 | 0.00 | 0.00 | 38 | 1013.7 |
| 20260831015604 | 93 | 140 | 2.0 | 8.0 | 0.00 | 0.00 | 0.00 | 38 | 1013.7 |
| 20260831015504 | 93 | 139 | 2.0 | 8.0 | 0.00 | 0.00 | 0.00 | 38 | 1013.6 |
| 20260831015306 | 93 | 141 | 3.0 | 7.0 | 0.00 | 0.00 | 0.00 | 38 | 1013.6 |
| 20260831015204 | 93 | 139 | 3.0 | 9.0 | 0.00 | 0.00 | 0.00 | 38 | 1013.5 |
| 20260831015104 | 93 | 141 | 2.0 | 9.0 | 0.00 | 0.00 | 0.00 | 39 | 1013.6 |
| 20260831015005 | 93 | 141 | 2.0 | 9.0 | 0.00 | 0.00 | 0.00 | 39 | 1013.5 |
| 20260831014905 | 93 | 141 | 2.0 | 9.0 | 0.00 | 0.00 | 0.00 | 39 | 1013.5 |
| 20260831014705 | 93 | 141 | 2.0 | 9.0 | 0.00 | 0.00 | 0.00 | 38 | 1013.4 |
| 20260831014605 | 93 | 142 | 3.0 | 9.0 | 0.00 | 0.00 | 0.00 | 38 | 1013.4 |
| 20260831014405 | 93 | 141 | 3.0 | 9.0 | 0.00 | 0.00 | 0.00 | 38 | 1013.4 |
| 20260831014305 | 93 | 140 | 2.0 | 9.0 | 0.00 | 0.00 | 0.00 | 39 | 1013.5 |
| 20260831014205 | 94 | 141 | 2.0 | 7.0 | 0.00 | 0.00 | 0.00 | 39 | 1013.4 |
| 20260831014105 | 94 | 140 | 2.0 | 7.0 | 0.00 | 0.00 | 0.00 | 38 | 1013.4 |
| 20260831014004 | 94 | 139 | 2.0 | 7.0 | 0.00 | 0.00 | 0.00 | 38 | 1013.5 |
| 20260831013805 | 94 | 140 | 2.0 | 7.0 | 0.00 | 0.00 | 0.00 | 38 | 1013.4 |
| 20260831013604 | 94 | 140 | 2.0 | 5.0 | 0.00 | 0.00 | 0.00 | 38 | 1013.4 |
| 20260831013505 | 94 | 140 | 2.0 | 5.0 | 0.00 | 0.00 | 0.00 | 38 | 1013.4 |
| 20260831013404 | 94 | 140 | 2.0 | 6.0 | 0.00 | 0.00 | 0.00 | 38 | 1013.4 |
| 20260831013304 | 94 | 139 | 2.0 | 6.0 | 0.00 | 0.00 | 0.00 | 38 | 1013.4 |
| 20260831013204 | 94 | 138 | 2.0 | 6.0 | 0.00 | 0.00 | 0.00 | 38 | 1013.4 |
| 20260831013004 | 94 | 140 | 2.0 | 7.0 | 0.00 | 0.00 | 0.00 | 38 | 1013.4 |
| 20260831012904 | 94 | 139 | 2.0 | 7.0 | 0.00 | 0.00 | 0.00 | 38 | 1013.4 |
| 20260831012804 | 94 | 135 | 2.0 | 7.0 | 0.00 | 0.00 | 0.00 | 38 | 1013.3 |
| 20260831012704 | 94 | 137 | 2.0 | 7.0 | 0.00 | 0.00 | 0.00 | 38 | 1013.3 |
| 20260831012604 | 94 | 137 | 2.0 | 7.0 | 0.00 | 0.00 | 0.00 | 38 | 1013.3 |
| 20260831012504 | 94 | 139 | 2.0 | 7.0 | 0.00 | 0.00 | 0.00 | 38 | 1013.3 |
| 20260831012404 | 94 | 138 | 2.0 | 7.0 | 0.00 | 0.00 | 0.00 | 38 | 1013.3 |
| 20260831012306 | 95 | 139 | 3.0 | 7.0 | 0.00 | 0.00 | 0.00 | 38 | 1013.3 |
| 20260831012104 | 95 | 141 | 3.0 | 7.0 | 0.00 | 0.00 | 0.00 | 38 | 1013.4 |
| 20260831012004 | 95 | 139 | 3.0 | 7.0 | 0.00 | 0.00 | 0.00 | 38 | 1013.3 |
| 20260831011904 | 95 | 139 | 3.0 | 7.0 | 0.00 | 0.00 | 0.00 | 37 | 1013.2 |
| 20260831011804 | 95 | 140 | 3.0 | 7.0 | 0.00 | 0.00 | 0.00 | 37 | 1013.2 |
| 20260831011704 | 95 | 138 | 3.0 | 7.0 | 0.00 | 0.00 | 0.00 | 37 | 1013.2 |
| 20260831011504 | 95 | 139 | 3.0 | 7.0 | 0.00 | 0.00 | 0.00 | 37 | 1013.1 |
| 20260831011404 | 95 | 139 | 3.0 | 7.0 | 0.00 | 0.00 | 0.00 | 37 | 1013.1 |
| 20260831011304 | 95 | 136 | 3.0 | 7.0 | 0.00 | 0.00 | 0.00 | 37 | 1013.1 |
| 20260831011204 | 95 | 137 | 3.0 | 7.0 | 0.00 | 0.00 | 0.00 | 37 | 1013.1 |
| 20260831011104 | 95 | 135 | 3.0 | 7.0 | 0.00 | 0.00 | 0.00 | 37 | 1013.1 |
| 20260831011004 | 96 | 136 | 3.0 | 8.0 | 0.00 | 0.00 | 0.00 | 37 | 1013.2 |
| 20260831010904 | 96 | 134 | 3.0 | 8.0 | 0.00 | 0.00 | 0.00 | 37 | 1013.2 |
| 20260831010804 | 96 | 133 | 3.0 | 8.0 | 0.00 | 0.00 | 0.00 | 37 | 1013.2 |
| 20260831010704 | 96 | 133 | 3.0 | 8.0 | 0.00 | 0.00 | 0.00 | 37 | 1013.1 |
| 20260831010605 | 96 | 133 | 4.0 | 8.0 | 0.00 | 0.00 | 0.00 | 37 | 1013.1 |
| 20260831010505 | 96 | 132 | 4.0 | 8.0 | 0.00 | 0.00 | 0.00 | 37 | 1013.1 |
| 20260831010405 | 96 | 131 | 3.0 | 8.0 | 0.00 | 0.00 | 0.00 | 37 | 1013.1 |
| 20260831010305 | 96 | 133 | 4.0 | 8.0 | 0.00 | 0.00 | 0.00 | 37 | 1013.1 |
| 20260831010005 | 96 | 139 | 3.0 | 12.0 | 0.00 | 0.00 | 0.00 | 37 | 1013.1 |
| 20260831005905 | 96 | 139 | 3.0 | 12.0 | 0.00 | 0.00 | 0.00 | 37 | 1013.1 |
| 20260831005804 | 96 | 140 | 3.0 | 12.0 | 0.00 | 0.00 | 0.00 | 37 | 1013.1 |
| 20260831005704 | 96 | 140 | 3.0 | 12.0 | 0.00 | 0.00 | 0.00 | 37 | 1013.1 |
| 20260831005504 | 96 | 138 | 3.0 | 12.0 | 0.00 | 0.00 | 0.00 | 37 | 1013.1 |
| 20260831005405 | 96 | 143 | 3.0 | 12.0 | 0.00 | 0.00 | 0.00 | 37 | 1013.1 |
| 20260831005306 | 97 | 143 | 3.0 | 12.0 | 0.00 | 0.00 | 0.00 | 37 | 1013.1 |
| 20260831005205 | 97 | 140 | 3.0 | 7.0 | 0.00 | 0.00 | 0.00 | 37 | 1013.0 |
| 20260831005105 | 97 | 140 | 3.0 | 7.0 | 0.00 | 0.00 | 0.00 | 37 | 1013.0 |
| 20260831005004 | 97 | 142 | 3.0 | 11.0 | 0.00 | 0.00 | 0.00 | 37 | 1013.1 |
| 20260831004904 | 97 | 147 | 4.0 | 15.0 | 0.00 | 0.00 | 0.00 | 36 | 1013.0 |
| 20260831004804 | 97 | 151 | 4.0 | 15.0 | 0.00 | 0.00 | 0.00 | 37 | 1013.0 |
| 20260831004704 | 97 | 154 | 4.0 | 15.0 | 0.00 | 0.00 | 0.00 | 36 | 1013.0 |
| 20260831004604 | 97 | 156 | 4.0 | 15.0 | 0.00 | 0.00 | 0.00 | 36 | 1013.0 |
| 20260831004505 | 97 | 157 | 4.0 | 15.0 | 0.00 | 0.00 | 0.00 | 36 | 1013.0 |
| 20260831004405 | 97 | 157 | 4.0 | 15.0 | 0.00 | 0.00 | 0.00 | 36 | 1013.0 |
| 20260831004305 | 97 | 156 | 5.0 | 15.0 | 0.00 | 0.00 | 0.00 | 36 | 1013.1 |
| 20260831004204 | 97 | 156 | 5.0 | 15.0 | 0.00 | 0.00 | 0.00 | 36 | 1013.0 |
| 20260831004104 | 97 | 157 | 4.0 | 15.0 | 0.00 | 0.00 | 0.00 | 36 | 1013.1 |
| 20260831004004 | 97 | 157 | 4.0 | 15.0 | 0.00 | 0.00 | 0.00 | 36 | 1013.1 |
| 20260831003904 | 97 | 154 | 4.0 | 14.0 | 0.00 | 0.00 | 0.00 | 36 | 1013.0 |
| 20260831003804 | 98 | 156 | 4.0 | 14.0 | 0.00 | 0.00 | 0.00 | 36 | 1013.0 |
| 20260831003704 | 98 | 152 | 4.0 | 14.0 | 0.00 | 0.00 | 0.00 | 36 | 1013.0 |
| 20260831003604 | 98 | 150 | 4.0 | 14.0 | 0.00 | 0.00 | 0.00 | 36 | 1013.1 |
| 20260831003504 | 98 | 155 | 4.0 | 14.0 | 0.00 | 0.00 | 0.00 | 36 | 1013.0 |
| 20260831003404 | 98 | 152 | 4.0 | 14.0 | 0.00 | 0.00 | 0.00 | 36 | 1013.0 |
| 20260831003304 | 98 | 153 | 4.0 | 11.0 | 0.00 | 0.00 | 0.00 | 36 | 1013.0 |
| 20260831003204 | 98 | 153 | 4.0 | 11.0 | 0.00 | 0.00 | 0.00 | 36 | 1013.0 |
| 20260831003104 | 98 | 150 | 4.0 | 11.0 | 0.00 | 0.00 | 0.00 | 36 | 1013.1 |
| 20260831003004 | 98 | 150 | 4.0 | 11.0 | 0.00 | 0.00 | 0.00 | 36 | 1013.0 |
| 20260831002904 | 98 | 152 | 4.0 | 11.0 | 0.00 | 0.00 | 0.00 | 36 | 1013.0 |
| 20260831002804 | 98 | 150 | 4.0 | 11.0 | 0.00 | 0.00 | 0.00 | 36 | 1013.0 |
| 20260831002704 | 98 | 152 | 4.0 | 11.0 | 0.00 | 0.00 | 0.00 | 36 | 1013.0 |
| 20260831002604 | 98 | 154 | 4.0 | 11.0 | 0.00 | 0.00 | 0.00 | 35 | 1013.0 |
| 20260831002306 | 98 | 153 | 4.0 | 11.0 | 0.00 | 0.00 | 0.00 | 35 | 1013.0 |
| 20260831002204 | 99 | 154 | 4.0 | 11.0 | 0.00 | 0.00 | 0.00 | 35 | 1013.0 |
| 20260831002004 | 99 | 156 | 5.0 | 11.0 | 0.00 | 0.00 | 0.00 | 35 | 1013.0 |
| 20260831001904 | 99 | 159 | 5.0 | 11.0 | 0.00 | 0.00 | 0.00 | 35 | 1013.0 |
| 20260831001804 | 99 | 156 | 5.0 | 11.0 | 0.00 | 0.00 | 0.00 | 35 | 1013.0 |
| 20260831001704 | 99 | 156 | 5.0 | 11.0 | 0.00 | 0.00 | 0.00 | 35 | 1013.0 |
| 20260831001604 | 99 | 158 | 5.0 | 11.0 | 0.00 | 0.00 | 0.00 | 35 | 1013.0 |
| 20260831001504 | 99 | 167 | 5.0 | 13.0 | 0.00 | 0.00 | 0.00 | 35 | 1013.0 |
| 20260831001404 | 99 | 168 | 5.0 | 13.0 | 0.00 | 0.00 | 0.00 | 35 | 1013.0 |
| 20260831001304 | 99 | 166 | 5.0 | 13.0 | 0.00 | 0.00 | 0.00 | 35 | 1013.0 |
| 20260831001204 | 99 | 165 | 5.0 | 13.0 | 0.00 | 0.00 | 0.00 | 34 | 1013.0 |
| 20260831001104 | 100 | 164 | 5.0 | 13.0 | 0.00 | 0.00 | 0.00 | 34 | 1013.0 |
| 20260831000805 | 100 | 160 | 5.0 | 13.0 | 0.00 | 0.00 | 0.00 | 34 | 1013.1 |
| 20260831000704 | 100 | 163 | 5.0 | 16.0 | 0.00 | 0.00 | 0.00 | 34 | 1013.0 |
| 20260831000604 | 100 | 164 | 4.0 | 18.0 | 0.00 | 0.00 | 0.00 | 34 | 1013.0 |
| 20260831000504 | 100 | 157 | 4.0 | 18.0 | 0.00 | 0.00 | 0.00 | 34 | 1013.1 |
| 20260831000404 | 100 | 160 | 4.0 | 18.0 | 0.00 | 0.00 | 0.00 | 34 | 1013.0 |
| 20260831000304 | 100 | 162 | 4.0 | 18.0 | 0.00 | 0.00 | 0.00 | 34 | 1013.0 |
| 20260831000204 | 100 | 164 | 4.0 | 18.0 | 0.00 | 0.00 | 0.00 | 34 | 1013.0 |
| 20260831000104 | 100 | 164 | 4.0 | 18.0 | 0.00 | 0.00 | 0.00 | 33 | 1013.0 |
| 20260831000004 | 101 | 165 | 4.0 | 18.0 | 0.00 | 0.00 | 0.00 | 33 | 1013.0 |
| 20260830235704 | 101 | 166 | 4.0 | 18.0 | 0.00 | 0.00 | 0.00 | 32 | 1013.0 |
| 20260830235604 | 101 | 161 | 4.0 | 18.0 | 0.00 | 0.00 | 0.00 | 32 | 1013.0 |
| 20260830235504 | 101 | 158 | 4.0 | 14.0 | 0.00 | 0.00 | 0.00 | 32 | 1013.0 |
| 20260830235404 | 101 | 153 | 4.0 | 14.0 | 0.00 | 0.00 | 0.00 | 32 | 1013.0 |
| 20260830235306 | 101 | 151 | 4.0 | 14.0 | 0.00 | 0.00 | 0.00 | 32 | 1013.0 |
| 20260830235204 | 101 | 148 | 5.0 | 14.0 | 0.00 | 0.00 | 0.00 | 32 | 1013.0 |
| 20260830235104 | 101 | 153 | 5.0 | 16.0 | 0.00 | 0.00 | 0.00 | 32 | 1013.0 |
| 20260830234904 | 101 | 155 | 5.0 | 16.0 | 0.00 | 0.00 | 0.00 | 32 | 1012.9 |
| 20260830234804 | 101 | 156 | 5.0 | 16.0 | 0.00 | 0.00 | 0.00 | 31 | 1012.9 |
| 20260830234604 | 101 | 161 | 5.0 | 17.0 | 0.00 | 0.00 | 0.00 | 31 | 1012.9 |
| 20260830234504 | 101 | 163 | 6.0 | 17.0 | 0.00 | 0.00 | 0.00 | 32 | 1012.9 |
| 20260830234304 | 101 | 166 | 6.0 | 17.0 | 0.00 | 0.00 | 0.00 | 31 | 1012.9 |
| 20260830234204 | 101 | 167 | 6.0 | 17.0 | 0.00 | 0.00 | 0.00 | 31 | 1012.9 |
| 20260830234104 | 102 | 166 | 6.0 | 17.0 | 0.00 | 0.00 | 0.00 | 31 | 1012.9 |
| 20260830234005 | 101 | 163 | 6.0 | 17.0 | 0.00 | 0.00 | 0.00 | 31 | 1012.9 |
| 20260830233905 | 101 | 162 | 6.0 | 17.0 | 0.00 | 0.00 | 0.00 | 31 | 1012.8 |
| 20260830233705 | 102 | 161 | 5.0 | 17.0 | 0.00 | 0.00 | 0.00 | 31 | 1012.9 |
| 20260830233605 | 102 | 159 | 5.0 | 17.0 | 0.00 | 0.00 | 0.00 | 31 | 1012.8 |
| 20260830233404 | 102 | 156 | 5.0 | 17.0 | 0.00 | 0.00 | 0.00 | 31 | 1012.8 |
| 20260830233305 | 102 | 156 | 5.0 | 17.0 | 0.00 | 0.00 | 0.00 | 31 | 1012.8 |
| 20260830232705 | 102 | 159 | 5.0 | 11.0 | 0.00 | 0.00 | 0.00 | 31 | 1012.8 |
| 20260830232604 | 102 | 157 | 5.0 | 11.0 | 0.00 | 0.00 | 0.00 | 31 | 1012.7 |
| 20260830232405 | 102 | 159 | 5.0 | 11.0 | 0.00 | 0.00 | 0.00 | 31 | 1012.8 |
| 20260830232306 | 102 | 160 | 5.0 | 11.0 | 0.00 | 0.00 | 0.00 | 31 | 1012.8 |
| 20260830232204 | 102 | 158 | 5.0 | 11.0 | 0.00 | 0.00 | 0.00 | 31 | 1012.7 |
| 20260830232105 | 102 | 159 | 5.0 | 11.0 | 0.00 | 0.00 | 0.00 | 31 | 1012.7 |
| 20260830232005 | 102 | 160 | 5.0 | 11.0 | 0.00 | 0.00 | 0.00 | 31 | 1012.7 |
| 20260830231904 | 102 | 161 | 5.0 | 12.0 | 0.00 | 0.00 | 0.00 | 31 | 1012.7 |
| 20260830231704 | 102 | 167 | 5.0 | 14.0 | 0.00 | 0.00 | 0.00 | 31 | 1012.7 |
| 20260830231604 | 102 | 167 | 5.0 | 14.0 | 0.00 | 0.00 | 0.00 | 31 | 1012.7 |
| 20260830231504 | 102 | 165 | 5.0 | 14.0 | 0.00 | 0.00 | 0.00 | 31 | 1012.7 |
| 20260830231404 | 102 | 167 | 5.0 | 14.0 | 0.00 | 0.00 | 0.00 | 31 | 1012.6 |
| 20260830231304 | 102 | 165 | 6.0 | 14.0 | 0.00 | 0.00 | 0.00 | 31 | 1012.6 |
| 20260830231204 | 102 | 169 | 6.0 | 14.0 | 0.00 | 0.00 | 0.00 | 31 | 1012.6 |
| 20260830231104 | 102 | 170 | 6.0 | 14.0 | 0.00 | 0.00 | 0.00 | 31 | 1012.6 |
| 20260830231004 | 102 | 170 | 6.0 | 14.0 | 0.00 | 0.00 | 0.00 | 31 | 1012.6 |
| 20260830230904 | 102 | 170 | 6.0 | 14.0 | 0.00 | 0.00 | 0.00 | 31 | 1012.6 |
| 20260830230804 | 102 | 169 | 6.0 | 14.0 | 0.00 | 0.00 | 0.00 | 31 | 1012.6 |
| 20260830230704 | 102 | 167 | 6.0 | 14.0 | 0.00 | 0.00 | 0.00 | 31 | 1012.6 |
| 20260830230504 | 102 | 170 | 6.0 | 14.0 | 0.00 | 0.00 | 0.00 | 31 | 1012.6 |
| 20260830230405 | 103 | 175 | 6.0 | 14.0 | 0.00 | 0.00 | 0.00 | 31 | 1012.6 |
| 20260830230304 | 103 | 178 | 6.0 | 14.0 | 0.00 | 0.00 | 0.00 | 31 | 1012.6 |
| 20260830230204 | 103 | 176 | 6.0 | 13.0 | 0.00 | 0.00 | 0.00 | 31 | 1012.6 |
| 20260830230104 | 103 | 175 | 6.0 | 13.0 | 0.00 | 0.00 | 0.00 | 31 | 1012.6 |
| 20260830230004 | 103 | 175 | 6.0 | 13.0 | 0.00 | 0.00 | 0.00 | 32 | 1012.5 |
| 20260830225904 | 103 | 174 | 6.0 | 13.0 | 0.00 | 0.00 | 0.00 | 31 | 1012.6 |
| 20260830225804 | 103 | 173 | 6.0 | 13.0 | 0.00 | 0.00 | 0.00 | 31 | 1012.6 |
| 20260830225704 | 103 | 173 | 6.0 | 13.0 | 0.00 | 0.00 | 0.00 | 31 | 1012.6 |
| 20260830225604 | 103 | 178 | 6.0 | 14.0 | 0.00 | 0.00 | 0.00 | 31 | 1012.6 |
| 20260830225504 | 103 | 175 | 6.0 | 14.0 | 0.00 | 0.00 | 0.00 | 31 | 1012.6 |
| 20260830225404 | 103 | 171 | 6.0 | 14.0 | 0.00 | 0.00 | 0.00 | 31 | 1012.6 |
| 20260830225204 | 103 | 170 | 6.0 | 14.0 | 0.00 | 0.00 | 0.00 | 31 | 1012.5 |
| 20260830225104 | 103 | 171 | 5.0 | 14.0 | 0.00 | 0.00 | 0.00 | 31 | 1012.6 |
| 20260830224904 | 103 | 167 | 5.0 | 14.0 | 0.00 | 0.00 | 0.00 | 31 | 1012.5 |
| 20260830224804 | 103 | 167 | 6.0 | 14.0 | 0.00 | 0.00 | 0.00 | 31 | 1012.5 |
| 20260830224704 | 103 | 167 | 5.0 | 14.0 | 0.00 | 0.00 | 0.00 | 31 | 1012.5 |
| 20260830224604 | 103 | 160 | 6.0 | 11.0 | 0.00 | 0.00 | 0.00 | 31 | 1012.5 |
| 20260830224504 | 103 | 164 | 5.0 | 12.0 | 0.00 | 0.00 | 0.00 | 31 | 1012.5 |
| 20260830224304 | 103 | 166 | 5.0 | 12.0 | 0.00 | 0.00 | 0.00 | 31 | 1012.5 |
| 20260830224204 | 103 | 169 | 5.0 | 12.0 | 0.00 | 0.00 | 0.00 | 31 | 1012.4 |
| 20260830224104 | 103 | 170 | 5.0 | 12.0 | 0.00 | 0.00 | 0.00 | 31 | 1012.4 |
| 20260830224004 | 103 | 172 | 5.0 | 12.0 | 0.00 | 0.00 | 0.00 | 31 | 1012.4 |
| 20260830223904 | 103 | 176 | 5.0 | 12.0 | 0.00 | 0.00 | 0.00 | 31 | 1012.3 |
| 20260830223804 | 103 | 179 | 5.0 | 12.0 | 0.00 | 0.00 | 0.00 | 31 | 1012.4 |
| 20260830223604 | 103 | 185 | 5.0 | 12.0 | 0.00 | 0.00 | 0.00 | 31 | 1012.4 |
| 20260830223504 | 103 | 181 | 5.0 | 11.0 | 0.00 | 0.00 | 0.00 | 31 | 1012.5 |
| 20260830223404 | 103 | 177 | 5.0 | 11.0 | 0.00 | 0.00 | 0.00 | 31 | 1012.4 |
| 20260830223304 | 103 | 173 | 5.0 | 11.0 | 0.00 | 0.00 | 0.00 | 31 | 1012.4 |
| 20260830223205 | 103 | 171 | 5.0 | 11.0 | 0.00 | 0.00 | 0.00 | 31 | 1012.4 |
| 20260830223105 | 103 | 169 | 6.0 | 11.0 | 0.00 | 0.00 | 0.00 | 31 | 1012.4 |
| 20260830223005 | 103 | 170 | 6.0 | 16.0 | 0.00 | 0.00 | 0.00 | 30 | 1012.4 |
| 20260830222904 | 103 | 172 | 6.0 | 18.0 | 0.00 | 0.00 | 0.00 | 31 | 1012.4 |
| 20260830222804 | 103 | 172 | 6.0 | 18.0 | 0.00 | 0.00 | 0.00 | 31 | 1012.4 |
| 20260830222705 | 103 | 170 | 6.0 | 18.0 | 0.00 | 0.00 | 0.00 | 31 | 1012.3 |
| 20260830222604 | 103 | 170 | 6.0 | 18.0 | 0.00 | 0.00 | 0.00 | 30 | 1012.4 |
| 20260830222504 | 103 | 171 | 6.0 | 18.0 | 0.00 | 0.00 | 0.00 | 31 | 1012.3 |
| 20260830222306 | 103 | 175 | 6.0 | 18.0 | 0.00 | 0.00 | 0.00 | 31 | 1012.4 |
| 20260830222204 | 103 | 179 | 7.0 | 18.0 | 0.00 | 0.00 | 0.00 | 31 | 1012.4 |
| 20260830222104 | 103 | 184 | 7.0 | 18.0 | 0.00 | 0.00 | 0.00 | 31 | 1012.4 |
| 20260830221904 | 103 | 189 | 6.0 | 15.0 | 0.00 | 0.00 | 0.00 | 31 | 1012.4 |
| 20260830221804 | 103 | 190 | 6.0 | 15.0 | 0.00 | 0.00 | 0.00 | 31 | 1012.4 |
| 20260830221704 | 103 | 191 | 7.0 | 15.0 | 0.00 | 0.00 | 0.00 | 31 | 1012.4 |
| 20260830221604 | 103 | 193 | 7.0 | 15.0 | 0.00 | 0.00 | 0.00 | 31 | 1012.4 |
| 20260830221504 | 103 | 195 | 7.0 | 15.0 | 0.00 | 0.00 | 0.00 | 31 | 1012.4 |
| 20260830221404 | 103 | 197 | 7.0 | 15.0 | 0.00 | 0.00 | 0.00 | 31 | 1012.6 |
| 20260830221204 | 103 | 190 | 6.0 | 15.0 | 0.00 | 0.00 | 0.00 | 31 | 1012.5 |
| 20260830221104 | 104 | 187 | 6.0 | 15.0 | 0.00 | 0.00 | 0.00 | 30 | 1012.5 |
| 20260830221004 | 104 | 182 | 6.0 | 15.0 | 0.00 | 0.00 | 0.00 | 31 | 1012.4 |
| 20260830220905 | 104 | 176 | 6.0 | 15.0 | 0.00 | 0.00 | 0.00 | 31 | 1012.4 |
| 20260830220804 | 104 | 172 | 6.0 | 15.0 | 0.00 | 0.00 | 0.00 | 31 | 1012.4 |
| 20260830220705 | 104 | 170 | 6.0 | 15.0 | 0.00 | 0.00 | 0.00 | 30 | 1012.4 |